GFSWCAN_prec_cthk_000.txt.gz
RH
98 97 89 83 72 59 52 48 47 47 47 42 40 38 38 40 41 42 40 40 39 37 37 34 34 32 33 34 37 38 42 43 46 50 53 52 55 50 51 49 53 58 71 79 81 86 89 74 77 87 80 79 86 88
96 97 96 90 83 70 61 54 50 49 48 46 42 40 40 42 43 43 44 43 42 41 41 39 37 36 34 34 35 38 38 36 42 48 52 54 57 58 60 60 56 62 64 69 76 71 79 82 86 82 84 86 89 91
95 96 97 96 91 80 68 62 56 52 52 51 48 45 45 44 44 44 45 46 46 46 47 45 43 41 39 37 36 38 39 40 42 45 50 54 58 55 62 63 67 65 70 74 79 73 83 88 85 85 87 88 88 91
89 92 94 96 94 87 80 73 65 59 57 56 56 55 53 52 50 48 48 47 48 48 49 49 47 47 45 44 43 41 41 42 44 48 53 54 55 55 65 65 69 72 76 78 80 81 84 83 86 85 90 92 91 77
76 87 90 94 96 92 87 78 68 66 63 63 64 64 64 64 64 62 58 55 52 52 55 54 53 52 51 50 49 47 46 47 48 53 54 55 56 61 67 73 75 76 77 87 90 88 88 88 86 91 90 79 71 61
60 74 86 92 95 95 92 85 79 75 69 69 70 70 71 72 73 73 72 69 64 61 61 65 61 56 53 50 49 47 48 48 49 52 55 56 54 62 76 82 76 80 81 86 90 91 90 92 88 84 76 68 65 61
48 57 70 85 95 96 94 93 92 89 77 74 73 73 73 74 76 78 76 73 73 71 69 69 66 58 54 53 52 53 51 52 52 55 58 58 65 79 85 85 86 87 87 88 92 92 94 92 82 68 67 63 61 58
44 46 54 79 90 94 97 97 97 94 87 83 79 79 77 77 77 76 75 72 72 75 73 76 68 59 55 55 55 52 54 57 61 66 69 73 81 90 91 84 85 85 86 90 92 92 88 74 67 64 60 58 53 49
44 44 45 60 86 92 95 98 97 97 97 95 91 89 89 82 76 75 81 82 80 74 68 63 59 59 53 53 56 59 63 69 72 76 82 91 94 95 88 86 84 85 91 94 85 73 66 63 58 51 48 46 44 42
42 39 36 43 66 88 91 94 96 99 99 99 99 98 93 89 88 90 92 85 84 83 79 67 64 63 59 64 72 82 87 92 91 88 91 89 87 88 86 83 87 89 90 80 71 65 55 47 46 43 42 41 38 32
44 41 41 37 45 71 88 94 98 99 99 99 98 98 98 97 99 98 98 96 92 84 81 78 79 83 84 89 92 95 96 95 92 87 91 86 80 81 81 85 87 82 76 67 54 46 44 45 42 42 42 35 29 30
46 44 43 36 39 50 82 93 98 98 98 98 97 99 99 99 99 99 98 98 95 93 90 91 95 95 94 96 98 98 99 97 95 89 93 83 75 77 80 81 78 70 57 46 43 44 43 43 44 39 31 29 31 32
49 48 47 45 42 45 65 94 97 98 99 99 99 99 99 98 98 98 96 94 92 90 90 91 95 97 98 96 97 98 98 96 91 92 84 78 76 78 78 75 62 53 48 46 45 46 46 43 35 32 32 33 33 32
53 53 52 50 48 49 54 79 98 98 98 98 98 98 98 97 98 97 97 97 96 96 96 96 96 95 97 96 97 97 97 94 94 90 83 74 74 72 63 57 53 50 49 48 47 45 40 31 30 33 34 36 35 36
57 55 60 59 57 57 66 78 93 97 98 97 95 98 97 97 97 97 95 94 95 96 96 97 97 96 96 97 96 97 97 94 88 80 74 70 65 62 57 52 53 52 49 45 39 31 30 34 35 31 34 36 38 39
67 61 61 64 66 67 72 77 87 98 95 89 91 95 97 97 96 96 96 95 94 95 97 97 96 97 97 96 94 94 91 82 79 77 76 70 63 57 56 55 51 44 35 29 30 34 37 37 37 35 34 38 38 41
72 66 67 66 73 77 80 82 83 90 97 89 88 89 90 91 91 91 90 91 92 94 95 93 95 94 94 96 95 89 86 80 75 70 62 55 54 55 52 44 34 29 30 34 36 39 39 40 39 39 40 38 42 45
86 87 84 77 76 87 94 93 95 90 84 88 86 88 89 87 86 87 86 86 87 86 84 84 80 84 82 82 80 74 68 62 57 56 55 53 52 47 40 33 34 37 37 37 39 38 39 41 42 47 47 46 45 47
92 95 93 90 89 97 98 98 96 93 90 88 88 85 83 82 83 83 85 89 89 87 81 82 81 74 71 68 66 64 61 59 58 57 54 48 39 37 39 41 39 38 39 39 40 42 44 46 49 53 56 55 52 55
95 98 99 97 95 92 92 93 91 86 84 85 83 84 83 82 81 80 81 83 81 78 79 76 71 70 69 65 62 59 58 57 52 46 43 44 44 42 41 41 40 40 40 41 43 45 48 52 60 65 68 70 68 65
96 99 97 95 95 91 84 86 86 83 81 79 79 79 79 77 77 75 74 74 74 73 69 65 62 61 59 58 58 56 51 46 42 41 40 41 44 42 39 41 40 41 43 46 48 51 59 65 70 71 72 74 74 72
97 99 99 98 97 95 90 86 85 78 75 76 74 72 71 70 69 67 66 65 64 63 61 57 55 54 53 51 48 46 44 43 41 39 38 37 37 39 40 42 44 46 50 54 57 59 67 75 78 80 80 80 78 75
98 98 98 97 95 92 94 82 74 71 70 70 68 67 65 65 63 62 61 61 60 58 51 50 50 50 49 47 46 43 40 38 37 38 41 43 44 45 46 48 54 56 57 58 64 71 78 85 85 86 88 85 82 79
98 97 95 91 87 87 78 76 72 68 65 64 63 63 62 64 66 67 65 63 59 53 51 49 48 47 44 42 41 41 41 42 44 45 50 55 54 52 56 56 57 59 63 64 71 80 86 90 91 91 91 87 85 83
94 95 90 87 82 79 76 73 71 68 68 71 72 71 71 72 70 65 59 56 50 48 48 48 48 48 49 47 47 49 52 53 55 54 54 63 63 60 57 61 67 71 77 78 82 88 93 93 95 96 97 95 92 85
89 88 81 80 81 76 74 73 72 72 71 73 74 72 73 73 71 62 58 58 55 54 53 54 54 53 55 57 57 60 63 66 65 60 58 63 66 68 67 71 75 79 88 88 90 94 97 98 98 98 97 96 92 89
86 80 79 75 73 70 70 71 70 70 69 71 71 71 71 71 67 61 60 59 59 58 58 58 59 61 62 64 66 66 67 68 69 69 69 72 73 74 75 78 82 87 90 93 96 97 97 97 97 97 96 94 94 91
76 71 66 67 66 66 66 64 63 63 64 65 68 74 75 72 69 68 65 65 67 68 70 72 72 70 68 66 65 63 62 66 72 75 76 77 80 81 79 82 89 96 99 98 98 98 98 98 98 98 97 95 92 90
76 73 73 73 73 72 69 67 67 68 68 72 75 79 78 75 73 74 74 73 71 68 64 61 57 50 43 41 46 49 51 54 59 68 71 75 88 87 88 94 98 99 99 98 98 98 98 98 98 98 96 91 87 85
78 75 77 77 79 79 78 76 76 75 75 77 78 79 80 78 76 71 66 61 55 50 47 44 43 47 51 55 58 62 64 64 65 73 77 81 89 94 93 95 98 98 98 98 98 99 98 97 96 95 92 88 84 79
82 83 83 82 82 85 83 82 82 83 82 80 78 76 74 68 62 57 52 48 47 46 48 55 59 58 60 62 64 68 72 78 81 84 85 86 90 96 96 96 98 98 99 99 98 98 96 93 90 87 86 83 79 75
87 90 89 86 82 78 73 66 62 59 58 56 57 51 49 50 50 49 49 52 55 59 64 66 65 66 69 73 75 77 77 80 82 85 89 90 92 95 98 98 99 98 99 98 98 96 94 90 87 85 81 77 73 72
62 61 59 60 60 60 57 51 48 43 41 42 44 47 51 56 59 60 60 61 66 69 70 71 72 72 72 74 79 81 83 84 85 87 89 92 93 94 96 98 99 98 98 98 98 96 92 87 83 80 77 75 73 72

GFSWCAN_prec_cthk_003.txt.gz
RH
96 89 83 73 58 54 56 56 56 56 54 51 47 43 41 41 42 44 43 41 41 40 41 43 42 40 37 37 40 38 38 41 42 45 48 47 52 43 43 40 47 52 63 67 70 79 78 67 70 79 80 82 85 82
98 94 89 81 69 59 54 53 51 50 51 52 48 43 41 42 42 44 48 43 41 42 43 37 36 34 34 38 39 38 39 36 38 44 46 49 50 52 49 50 43 47 51 60 69 67 71 76 83 87 86 86 87 86
97 98 95 91 81 71 61 55 51 49 48 48 48 44 42 42 44 45 47 48 46 45 46 46 43 38 36 35 36 38 40 40 39 42 43 48 52 49 54 50 44 42 50 62 69 66 72 74 84 85 87 85 82 82
93 97 98 97 91 85 80 65 57 52 50 49 49 49 46 45 46 47 48 50 51 50 50 51 47 45 42 40 40 40 41 38 42 43 46 50 51 49 55 46 46 46 52 65 70 73 74 80 88 89 87 81 78 79
81 87 93 95 94 91 87 80 68 61 56 53 52 52 51 50 50 49 50 50 51 53 56 52 49 47 48 47 47 46 45 46 48 50 52 53 53 54 58 56 48 44 54 70 78 78 81 90 89 92 91 88 80 66
62 73 81 86 90 92 88 86 81 72 66 61 58 57 56 57 58 59 65 58 58 56 56 58 57 54 53 54 55 55 54 55 55 58 55 54 54 55 63 58 41 49 58 71 81 86 87 88 89 94 86 80 67 58
45 49 60 72 82 87 91 90 87 77 76 74 67 64 64 64 67 72 71 70 69 69 69 69 64 60 61 63 63 62 60 60 58 61 59 55 55 58 64 58 52 60 71 79 83 83 83 88 91 83 73 61 58 58
35 38 39 54 71 82 88 90 89 86 85 78 75 72 71 74 75 77 77 76 79 81 79 82 78 70 66 67 69 68 67 64 60 59 61 57 60 66 68 57 69 80 80 81 79 83 87 86 76 69 61 56 50 49
37 40 35 39 54 76 84 89 91 92 90 88 86 88 82 78 75 77 83 82 82 83 84 78 75 74 68 69 70 68 66 66 65 66 65 68 71 73 70 78 81 80 84 82 80 83 83 76 64 54 50 48 47 45
38 43 41 36 41 54 74 84 90 94 98 98 99 98 92 85 86 85 88 86 85 80 76 68 67 70 65 66 64 63 64 69 69 67 78 83 77 76 83 84 83 84 82 84 85 76 70 57 49 48 48 47 45 40
38 37 40 43 36 37 57 78 87 95 99 98 98 98 94 93 97 98 97 93 89 80 71 68 71 71 69 72 79 79 78 84 86 82 90 82 73 73 80 82 84 82 85 82 77 64 51 49 50 49 48 45 38 33
41 40 37 34 37 38 45 65 84 95 98 98 98 97 100 99 98 99 98 95 89 85 76 75 79 82 84 85 86 91 98 98 97 87 93 84 74 76 76 79 81 81 77 68 59 52 51 50 48 47 44 37 32 29
39 40 40 39 36 39 44 54 78 93 99 99 99 99 99 98 99 98 96 91 85 80 81 84 88 91 92 98 99 99 98 98 93 92 86 82 78 77 79 81 80 73 63 56 53 52 50 48 44 39 32 30 30 30
43 46 47 45 42 43 43 48 61 84 97 98 98 98 98 98 98 98 95 91 88 89 89 93 97 98 98 98 98 98 97 95 97 95 91 84 82 82 81 78 71 66 57 53 50 48 44 37 31 31 32 32 32 32
36 46 50 50 49 46 49 55 63 73 90 98 98 98 97 97 97 97 98 98 98 98 98 98 98 98 98 98 98 96 97 96 92 88 86 81 79 76 75 70 65 57 54 52 49 40 30 30 32 32 33 33 34 35
32 43 50 55 59 57 56 58 66 72 78 89 97 97 97 97 97 97 97 97 97 97 97 98 98 98 98 97 97 97 97 92 87 85 84 82 79 73 68 62 59 57 50 39 31 30 33 34 33 32 32 34 37 41
33 46 51 55 61 64 61 66 75 74 82 81 87 96 97 94 95 95 94 96 96 98 98 97 97 97 96 97 95 90 90 89 88 86 82 76 70 65 60 56 51 44 36 34 35 35 33 34 35 35 34 36 46 49
34 46 57 60 63 68 71 68 71 75 75 82 85 93 93 92 93 93 92 92 92 92 91 94 90 93 92 92 87 85 81 79 77 70 67 65 62 58 54 48 43 40 39 37 33 33 34 36 40 42 48 54 56 59
42 53 60 63 67 71 75 84 83 81 78 80 82 86 87 85 85 86 87 89 91 92 89 93 94 88 84 79 74 71 71 69 69 68 65 60 55 47 41 40 39 35 33 33 34 37 40 45 48 52 57 64 68 67
44 61 68 78 82 83 82 83 89 88 85 86 83 83 81 81 80 81 83 85 85 84 86 86 82 80 76 71 68 66 65 62 60 58 51 48 46 44 41 40 39 37 36 36 37 41 48 52 55 65 68 69 70 72
60 78 87 94 94 88 88 87 94 93 91 87 84 83 80 78 79 79 79 81 82 78 74 72 72 69 63 59 58 58 57 54 48 46 45 44 45 43 39 39 40 41 41 42 44 47 51 54 55 63 67 72 79 80
82 97 99 97 97 96 92 87 88 87 87 83 80 78 76 75 73 71 70 69 67 66 64 63 61 60 60 57 54 50 47 45 44 44 42 41 41 43 44 47 49 50 52 53 58 55 52 60 63 67 76 82 85 84
97 99 98 98 97 94 97 85 85 83 82 81 78 75 69 64 59 57 57 55 56 54 51 54 55 53 54 52 51 49 46 43 42 40 40 42 43 46 46 49 57 60 61 56 60 60 63 71 74 78 87 90 88 87
98 99 98 98 97 97 89 85 83 83 80 75 68 65 60 61 56 57 57 57 56 52 52 52 52 53 55 51 52 54 52 49 47 48 50 52 54 55 60 62 61 65 67 72 72 68 72 78 82 87 91 92 92 94
98 98 98 97 94 91 87 83 82 78 74 73 71 69 66 65 65 61 60 59 59 58 57 56 57 56 59 63 62 63 60 59 59 58 60 65 67 66 67 67 67 70 74 75 71 72 75 83 87 90 93 96 97 97
96 96 94 89 88 83 79 77 77 75 73 72 71 68 68 69 67 62 59 64 62 63 60 61 64 66 68 70 68 66 64 62 61 62 62 66 68 70 70 72 71 69 81 80 76 76 81 88 93 97 98 98 98 98
88 87 82 79 77 74 73 73 71 70 69 68 67 69 69 64 62 62 65 63 65 63 65 66 65 68 68 67 67 65 61 56 50 46 42 41 45 56 68 74 78 75 74 78 81 82 89 96 98 98 99 98 98 98
77 73 68 68 65 62 60 62 62 61 61 58 59 63 62 62 69 72 68 67 68 70 72 72 73 72 68 60 50 45 40 38 40 44 47 50 53 52 56 71 76 75 80 86 89 92 97 99 98 98 99 99 99 98
66 63 60 59 58 57 56 56 58 57 60 61 69 72 75 75 76 75 75 75 76 76 74 69 60 50 47 47 49 49 48 47 48 51 55 58 59 59 63 71 76 80 86 93 94 96 98 98 98 98 99 99 99 97
65 64 64 63 62 64 69 68 71 70 74 78 82 82 82 81 82 81 79 76 73 67 59 55 52 51 52 53 55 56 55 56 58 60 62 64 65 66 70 73 77 81 87 93 95 96 98 98 99 99 98 97 93 90
74 73 74 76 78 81 81 81 84 86 87 89 90 90 86 82 77 76 71 65 59 53 52 54 58 60 61 61 61 61 62 63 64 67 68 69 71 73 73 78 83 86 90 93 97 98 99 99 99 98 97 94 89 85
85 89 89 89 90 90 85 82 79 74 71 68 71 65 61 61 58 52 54 56 58 61 63 64 65 66 67 68 69 70 68 67 67 69 74 74 76 78 80 82 86 90 92 93 95 98 99 99 99 98 94 89 85 80
69 68 67 64 64 65 65 58 58 54 53 52 51 49 52 58 60 62 63 64 67 69 69 69 68 67 66 66 65 65 66 67 70 73 76 77 78 82 85 86 89 93 94 96 98 99 99 99 98 95 91 86 81 74

GFSWCAN_prec_cthk_006.txt.gz
RH
96 85 72 63 62 61 60 62 61 59 57 52 46 43 40 41 45 47 47 44 45 46 47 51 53 56 54 54 57 51 44 41 42 45 44 43 49 44 40 36 44 47 55 58 57 61 59 51 57 65 70 75 80 81
98 98 90 74 68 62 59 59 61 60 59 53 50 49 47 42 42 46 51 47 45 47 46 47 49 51 49 50 49 45 41 39 37 41 41 44 46 50 47 44 35 47 45 51 51 50 50 59 62 66 72 80 82 88
99 98 91 83 70 61 58 58 59 59 59 58 55 53 49 45 44 45 49 49 48 47 48 46 45 42 41 42 41 42 42 40 38 42 42 44 47 44 48 44 37 39 38 49 51 43 48 57 66 72 80 84 86 84
98 99 96 88 78 70 61 57 57 57 58 59 57 55 51 47 44 46 49 48 51 52 52 52 49 47 43 42 42 41 41 41 44 43 44 43 43 41 48 41 45 40 42 42 47 46 53 65 70 79 82 87 90 89
95 97 97 92 87 79 67 61 57 55 54 53 53 52 51 49 46 46 48 49 52 57 57 55 50 49 48 49 50 47 46 46 47 49 49 48 46 46 51 55 50 40 41 47 52 56 60 71 81 84 88 89 88 84
83 87 93 95 92 85 79 74 66 60 56 53 52 51 52 51 49 49 55 52 54 55 57 56 55 54 52 52 53 52 53 53 55 56 55 52 50 51 60 58 41 41 42 45 51 60 70 81 85 83 81 80 77 71
59 74 77 85 91 93 92 86 81 81 73 62 58 55 54 53 53 58 60 60 56 58 62 63 61 58 58 60 62 62 61 62 62 64 65 61 55 61 67 61 45 46 49 56 64 76 81 80 82 81 78 72 70 66
41 43 56 68 78 85 89 91 88 88 85 78 69 64 62 58 58 60 62 64 70 74 72 75 74 68 66 69 73 74 72 70 68 66 66 66 64 68 69 52 48 50 59 72 78 81 82 81 82 80 74 68 61 52
38 39 42 47 56 73 82 87 91 91 91 92 86 80 76 73 70 66 68 69 72 77 81 77 76 78 74 76 80 82 81 81 77 74 70 69 68 65 49 48 52 68 77 82 83 85 83 81 78 72 62 53 51 49
30 35 39 40 39 44 69 77 85 92 96 96 95 88 84 81 76 75 81 80 80 79 76 73 74 76 75 79 80 82 80 82 77 68 69 66 57 51 52 58 74 78 85 87 87 81 83 82 73 58 50 50 49 47
31 30 31 36 38 34 36 60 77 89 95 98 96 93 90 89 92 92 93 93 85 77 72 70 70 71 74 77 81 81 80 81 80 74 79 74 66 60 68 81 84 88 90 90 85 85 81 69 56 52 50 50 47 43
34 34 32 30 31 34 34 42 64 84 96 98 96 98 100 100 99 99 97 94 87 81 75 76 74 76 81 85 87 89 93 94 89 86 90 81 71 74 79 83 85 87 88 86 81 75 65 57 54 51 49 44 40 36
34 39 38 35 36 36 47 40 45 71 91 96 99 99 99 98 99 98 96 88 83 81 77 76 81 85 90 93 96 98 98 98 95 94 87 82 84 85 86 87 87 85 80 77 69 62 57 52 50 46 41 34 36 36
32 37 40 40 40 40 41 53 54 55 71 92 98 98 98 98 98 98 95 88 86 85 85 88 91 96 97 99 99 98 98 97 98 95 90 95 91 93 91 90 87 81 77 65 64 57 53 50 41 33 33 37 34 30
32 40 42 43 43 42 43 49 53 56 63 75 95 98 97 97 98 97 97 98 96 94 95 97 97 98 97 99 98 98 97 97 96 97 97 94 92 91 90 89 84 76 70 61 56 52 44 35 34 36 34 32 31 31
24 35 46 48 48 48 46 48 52 59 61 66 75 88 97 97 97 98 97 97 98 98 98 98 98 98 98 98 98 98 97 97 98 96 91 88 89 86 82 77 72 66 59 56 50 40 37 37 35 31 29 30 32 34
20 35 41 47 51 52 53 55 64 66 61 62 71 74 81 92 97 97 96 97 96 97 97 97 98 97 96 97 97 97 97 97 96 92 88 85 82 79 74 66 60 58 53 48 41 38 35 32 31 31 31 34 40 46
30 33 41 50 53 55 59 62 64 69 69 67 69 70 75 76 78 85 89 90 91 93 94 96 93 95 95 95 93 92 88 87 85 81 77 72 69 67 65 61 54 48 42 38 35 33 32 32 33 34 39 47 52 59
37 41 45 53 56 57 58 63 67 65 62 66 68 70 70 73 76 78 84 87 89 89 89 91 93 90 86 80 80 79 79 75 73 71 70 66 61 56 49 42 39 37 35 35 35 34 35 37 40 45 50 57 63 67
38 41 49 55 59 64 66 66 68 75 80 78 75 77 76 73 72 73 74 78 81 82 82 84 84 82 79 75 71 67 67 64 61 60 58 53 49 46 43 41 39 39 38 36 37 38 42 47 51 58 60 64 71 70
39 40 45 59 65 68 69 67 71 74 73 82 85 83 80 77 78 78 78 77 76 77 75 70 69 70 66 62 58 55 55 55 54 50 47 46 46 44 42 41 42 42 43 44 49 49 54 57 62 60 63 68 70 73
42 49 55 66 75 76 76 77 79 79 81 87 91 88 87 84 81 78 77 73 71 66 63 61 61 59 59 56 55 53 51 48 45 45 46 46 46 46 46 47 48 48 52 54 62 65 63 64 65 65 67 65 72 76
48 63 72 76 87 87 92 92 89 88 86 88 89 88 81 78 76 72 69 61 59 54 54 53 52 52 51 55 55 52 49 49 51 53 52 53 54 54 56 59 67 68 67 64 66 66 73 77 76 69 67 70 78 82
77 92 98 98 98 98 93 94 92 88 86 88 87 85 82 76 67 64 59 57 56 53 52 51 51 53 54 52 54 61 61 59 58 60 62 60 59 56 58 60 61 64 71 74 76 74 72 72 73 71 70 74 81 87
98 97 98 98 97 97 94 91 89 89 81 79 79 77 74 68 66 63 60 62 66 62 59 57 57 59 68 70 70 70 66 63 64 61 60 61 58 53 50 45 42 45 49 51 53 62 72 79 80 78 78 82 90 94
98 98 98 95 96 97 94 93 89 87 84 79 77 76 72 69 66 62 60 66 62 59 57 60 65 69 72 69 70 69 67 64 62 58 55 50 41 39 40 43 42 43 43 48 55 63 69 74 77 81 85 90 96 98
97 97 96 97 97 95 94 94 89 83 78 77 76 73 68 63 60 63 66 64 60 61 62 65 68 70 72 73 72 70 65 56 46 39 39 43 48 49 50 50 52 52 52 53 59 69 75 77 82 88 92 95 98 98
94 95 94 93 88 82 79 79 76 70 66 64 64 62 59 57 64 65 65 65 65 69 72 73 73 74 74 71 65 55 46 43 44 46 49 56 56 52 55 58 60 61 62 62 66 71 76 79 86 91 94 96 98 98
84 82 77 74 68 63 59 58 57 55 56 55 60 63 65 65 68 71 74 75 77 80 82 82 79 77 70 60 55 51 50 51 53 51 51 52 52 54 57 59 60 61 63 66 73 77 78 80 87 92 95 96 97 97
66 64 62 59 57 60 61 60 62 62 62 66 70 71 72 73 77 79 82 85 86 84 80 75 67 60 56 55 57 61 61 59 59 58 59 59 59 58 59 61 64 67 69 72 75 79 84 85 88 92 95 98 99 99
66 65 66 66 67 70 70 69 70 72 76 81 84 86 85 84 78 76 75 72 69 62 57 55 57 60 63 65 65 64 63 62 62 61 61 61 61 62 63 65 68 73 74 76 81 82 85 89 92 93 95 98 99 99
76 77 79 79 83 84 82 80 77 75 74 71 69 65 63 60 56 52 52 55 58 61 61 64 65 66 64 62 60 57 53 48 44 44 44 45 47 53 59 66 71 75 78 80 84 87 90 92 94 96 98 99 99 97
54 54 55 55 56 57 58 52 53 54 53 54 58 53 52 55 59 60 61 62 66 67 65 62 58 54 51 44 38 38 38 38 37 40 42 42 43 45 48 54 64 75 80 82 86 89 92 94 98 99 99 99 97 92

GFSWCAN_prec_cthk_009.txt.gz
RH
86 73 66 67 63 61 63 62 58 59 59 55 51 46 45 45 46 44 40 40 39 40 41 44 46 45 46 49 54 53 54 52 55 52 47 43 46 42 41 40 43 43 50 52 52 56 54 34 39 44 44 51 59 64
91 81 71 65 61 63 63 63 61 58 59 57 53 49 45 42 44 46 46 43 41 39 39 47 51 54 53 52 50 53 48 48 47 49 46 45 44 47 45 44 37 44 40 47 45 44 36 41 44 46 45 52 63 70
96 91 81 70 67 66 64 63 63 61 59 59 56 51 46 43 41 42 47 47 45 43 43 46 51 52 56 57 53 49 49 46 43 38 40 44 44 43 45 45 34 36 39 45 47 44 45 52 50 49 53 60 70 76
98 97 91 79 66 70 72 65 63 63 61 60 58 52 48 49 47 45 44 45 47 46 48 47 45 46 48 49 49 48 46 47 45 46 47 45 43 39 42 36 39 33 37 40 44 45 49 51 51 55 62 69 80 82
99 98 96 89 75 67 64 66 63 63 62 61 60 58 55 54 51 48 46 46 49 50 51 51 48 49 47 47 49 51 49 49 51 53 54 51 47 47 49 50 46 37 42 48 47 46 49 52 57 64 74 83 83 83
98 98 98 97 89 78 70 65 64 63 62 60 58 57 57 55 53 50 49 46 48 50 50 56 55 53 52 51 52 52 54 54 55 54 55 53 51 52 58 58 45 43 44 46 51 54 52 61 67 75 82 80 78 78
86 93 96 97 93 83 74 68 64 60 58 56 55 54 54 52 51 52 53 54 51 52 54 58 56 53 54 55 56 58 59 59 59 60 61 61 60 63 62 60 48 54 55 54 51 53 59 70 80 81 79 80 77 74
68 73 81 87 94 90 83 78 74 68 61 57 54 53 53 52 52 54 54 54 55 56 57 62 62 57 58 62 66 68 73 79 83 81 76 71 68 69 67 54 54 51 52 54 53 60 76 79 84 85 83 77 74 68
49 49 57 68 77 86 89 86 83 80 76 70 69 69 63 57 56 55 56 56 58 60 64 66 66 68 68 71 76 80 83 85 81 80 80 80 76 72 57 54 52 52 54 57 63 74 86 89 87 85 80 78 69 56
46 48 46 46 52 67 81 87 89 92 92 89 86 87 80 72 68 66 69 67 67 66 67 63 63 68 67 75 79 83 86 87 83 77 79 74 63 55 59 65 63 64 67 74 84 94 93 88 86 84 79 67 58 55
36 39 43 42 41 43 54 74 82 90 96 96 94 93 93 91 90 87 84 81 78 72 69 66 66 68 70 75 81 85 85 83 80 74 79 69 58 59 61 68 76 82 87 91 94 95 93 89 88 79 63 59 55 50
31 30 34 37 37 38 42 56 74 79 87 90 94 98 99 99 98 98 90 85 82 80 78 76 76 80 85 87 91 95 96 92 88 87 89 78 72 67 70 77 82 86 91 96 96 93 91 87 70 62 60 54 49 41
32 33 31 31 33 39 43 45 54 72 82 86 91 95 98 99 99 95 88 87 86 82 82 83 86 90 93 94 97 97 98 96 92 92 89 86 82 83 85 85 87 89 89 87 88 84 72 63 65 57 52 43 39 43
29 31 34 37 36 35 38 44 46 51 65 83 90 91 95 97 96 96 92 89 89 89 89 90 92 93 96 99 99 98 98 98 97 93 89 93 94 95 90 88 85 86 90 84 77 69 70 62 54 48 42 43 41 36
30 33 34 35 39 41 40 38 39 42 53 59 77 90 91 94 97 97 97 96 96 96 96 95 94 95 95 99 98 98 98 98 98 98 98 98 97 96 92 88 89 90 82 77 73 66 60 53 47 43 39 36 32 29
29 35 38 38 40 38 38 38 38 41 47 55 62 71 84 92 95 96 96 97 98 98 98 98 98 98 98 98 98 98 98 98 98 97 95 95 94 94 95 93 89 84 75 69 63 59 52 44 39 36 31 29 30 35
23 30 34 38 40 39 38 39 42 45 45 50 56 62 66 72 80 90 96 97 96 97 97 97 97 97 97 98 98 98 98 97 94 92 90 90 90 85 81 80 76 71 66 62 53 44 38 36 34 31 29 30 34 40
32 31 32 37 39 41 42 40 46 53 56 58 60 61 62 62 69 71 75 81 89 93 94 94 92 97 97 97 98 97 93 91 90 89 87 84 80 76 74 70 63 56 48 41 39 36 35 33 32 31 34 37 40 45
32 35 35 38 44 46 46 46 48 48 51 52 60 64 64 63 63 65 65 67 71 76 79 86 91 94 95 90 90 88 86 82 79 76 74 74 71 65 60 53 48 45 42 39 36 35 35 36 38 42 46 50 54 56
30 33 38 45 44 45 51 52 49 51 50 54 58 59 61 64 63 65 67 69 69 70 68 70 73 76 76 75 73 71 71 67 64 61 59 56 53 49 46 44 43 43 42 43 43 42 42 44 48 53 57 61 68 71
33 35 39 41 52 50 55 58 56 57 57 58 62 68 73 73 74 74 72 74 72 72 72 67 65 67 69 65 60 56 53 52 50 50 48 45 44 45 45 45 47 47 48 50 52 52 56 59 58 59 64 74 75 74
37 39 40 43 57 69 65 60 60 60 61 63 64 67 72 77 77 77 76 73 73 72 68 68 66 62 58 57 55 51 48 46 44 45 49 51 50 49 51 53 55 55 55 59 63 61 60 65 68 74 79 79 75 74
40 41 45 50 57 64 77 76 65 67 68 73 75 77 80 84 86 84 77 73 71 66 62 59 57 56 55 55 55 52 46 49 54 57 56 56 58 58 57 59 63 64 59 54 56 53 51 53 61 64 65 68 68 65
49 48 48 61 75 80 79 72 79 83 83 87 88 86 86 84 80 79 77 74 70 60 56 53 53 53 51 47 47 51 54 57 60 66 66 62 59 57 59 60 60 57 48 42 41 41 42 44 49 60 65 67 66 69
66 60 65 79 94 91 82 81 87 93 96 96 93 88 87 83 82 79 74 71 69 66 64 61 57 54 59 60 58 59 62 66 68 69 69 65 59 54 46 42 43 45 47 47 48 48 47 48 51 55 60 66 70 75
98 87 83 89 97 99 93 94 96 96 95 96 94 90 82 79 77 73 73 74 73 68 59 59 60 59 61 64 67 68 69 70 69 68 66 57 49 48 47 46 46 47 51 52 53 54 55 55 55 58 64 70 76 78
96 92 97 94 98 98 98 98 98 96 96 95 91 89 85 81 77 80 76 71 66 63 59 59 63 65 67 70 71 71 74 74 68 59 53 54 52 52 52 52 52 52 53 55 57 60 61 63 64 67 70 73 77 79
96 96 98 98 98 98 97 97 96 94 91 87 84 84 79 73 73 69 66 65 64 64 64 67 72 74 77 80 79 78 74 63 55 53 57 57 57 57 58 57 59 59 60 61 63 65 66 69 71 74 77 79 79 81
98 98 96 96 91 86 83 83 80 77 75 70 68 65 62 60 61 64 68 71 73 74 75 78 81 84 84 79 69 57 51 50 50 53 55 56 56 56 56 55 55 56 57 59 63 68 71 76 77 77 80 84 83 86
82 81 78 75 77 77 74 73 71 67 62 62 64 66 68 70 72 74 77 81 85 86 82 75 70 65 56 53 54 54 55 56 55 53 50 47 43 39 36 36 37 40 45 50 56 64 69 75 79 80 83 87 87 88
72 71 69 68 72 71 69 67 66 66 66 70 72 72 75 79 81 84 81 74 68 62 55 52 53 55 57 58 58 57 55 50 45 39 36 35 34 34 35 36 38 40 43 47 53 59 67 75 80 82 86 90 91 93
67 68 71 73 74 75 72 69 68 67 68 69 68 65 65 62 61 57 53 52 53 55 57 59 59 58 55 51 48 42 37 34 34 35 35 38 39 39 40 40 42 45 49 53 57 62 68 77 82 90 91 92 94 97
48 45 44 46 50 50 49 42 44 47 49 51 52 54 55 58 60 59 57 57 58 57 56 55 52 47 40 34 31 32 34 36 37 39 42 44 45 45 44 46 49 52 56 60 64 68 72 77 85 91 95 99 100 100

GFSWCAN_prec_cthk_015.txt.gz
RH
71 69 69 68 72 74 75 70 66 66 68 56 52 40 39 41 48 60 60 46 39 35 39 40 38 36 36 39 43 42 46 46 48 53 53 54 55 50 49 45 48 49 51 51 51 52 38 25 33 36 30 29 35 39
71 69 78 75 75 79 74 70 69 68 65 64 54 50 43 41 42 43 41 39 37 37 39 39 39 38 38 42 42 46 44 45 47 50 52 53 53 55 51 51 46 48 41 44 41 37 27 29 29 30 33 36 41 45
73 72 78 75 77 80 73 72 71 70 66 57 60 59 56 52 50 46 44 42 38 39 41 43 42 41 41 42 44 43 46 43 44 42 46 49 47 50 51 50 44 41 40 42 40 32 33 35 36 37 41 45 48 51
79 75 80 78 79 81 74 72 72 69 65 60 55 49 49 50 47 43 40 38 36 34 37 45 44 48 48 47 46 46 45 45 45 44 46 45 43 42 45 42 44 41 44 43 45 41 42 41 42 45 48 50 56 62
89 84 84 82 82 83 77 73 72 71 67 62 57 52 49 47 47 46 45 43 41 38 40 44 46 48 51 52 51 51 51 52 52 52 52 51 48 50 50 52 49 45 47 51 47 43 45 44 46 50 55 58 60 61
91 86 84 82 85 85 81 77 73 70 69 67 63 57 53 50 47 45 43 42 42 41 40 46 45 46 46 47 47 47 47 46 47 47 50 51 48 51 57 56 44 41 43 46 48 50 49 51 55 55 55 59 63 69
92 86 81 80 82 83 83 80 77 73 68 66 65 64 62 58 54 50 47 49 50 48 46 52 51 49 48 48 48 50 50 51 52 54 55 53 54 56 59 60 49 59 59 59 59 59 58 57 57 58 64 73 80 80
92 86 80 77 74 71 74 73 72 71 68 67 65 63 63 62 61 57 55 54 54 53 51 55 54 50 51 53 55 54 55 55 57 59 60 62 66 70 71 57 59 59 59 59 60 61 60 61 63 70 79 82 83 86
98 95 92 86 79 75 68 67 69 69 68 66 65 64 63 61 61 61 61 60 57 55 54 54 51 51 53 57 59 60 61 64 64 67 69 72 71 68 60 59 59 59 58 57 61 65 68 73 76 80 84 83 88 98
96 97 95 93 88 83 80 74 72 73 74 74 72 69 67 66 65 63 64 61 61 60 58 55 51 53 51 55 58 61 63 67 67 65 67 66 61 57 60 61 64 68 72 70 73 78 79 81 86 88 91 95 98 87
71 80 91 93 92 91 87 82 76 73 70 70 71 72 70 69 67 66 69 68 68 67 63 62 58 55 56 60 68 74 76 73 71 67 74 73 72 70 71 71 71 70 72 76 78 82 84 87 93 95 97 94 84 79
64 66 65 72 85 91 92 93 92 88 78 72 69 70 70 69 67 68 70 70 68 70 70 70 64 65 70 76 82 84 84 84 83 81 86 78 76 75 77 78 78 78 80 82 85 86 91 94 92 90 84 79 77 72
56 55 57 60 65 72 85 92 94 97 92 86 87 85 82 81 83 84 81 80 80 80 83 86 90 91 94 95 96 97 97 93 89 88 87 83 80 82 85 86 85 86 86 86 88 89 91 87 86 84 78 71 65 63
52 54 54 55 56 58 60 66 81 95 95 98 98 99 96 92 90 91 89 90 89 90 92 92 93 92 95 97 99 99 98 97 96 92 87 87 89 89 89 88 90 90 88 87 86 84 84 82 76 72 68 66 63 58
46 48 50 48 51 53 53 54 63 67 81 95 95 97 95 94 93 92 92 92 91 91 92 93 94 95 95 97 97 97 97 95 93 91 92 91 91 95 95 94 93 89 88 89 87 84 79 76 73 70 66 62 57 51
31 35 35 39 41 41 44 48 51 52 54 62 76 89 93 94 93 93 93 93 93 93 93 94 96 97 97 96 95 94 95 93 93 95 97 97 95 95 97 96 93 94 95 94 92 87 79 74 69 63 56 52 50 48
27 28 28 27 27 28 31 33 35 40 48 53 58 62 65 66 74 81 85 89 90 91 92 93 93 94 96 97 97 98 97 97 98 98 96 97 98 95 92 91 89 86 82 80 76 72 66 61 56 53 51 49 47 45
17 25 25 25 25 24 23 26 29 32 36 41 45 49 50 51 55 58 61 64 65 68 72 75 78 83 88 90 92 95 96 94 93 94 97 97 94 89 85 81 76 73 67 60 55 53 52 51 48 46 45 45 45 48
16 17 18 20 23 24 25 29 31 36 39 42 45 47 48 50 53 54 55 53 51 52 52 57 62 66 70 72 73 76 78 76 77 77 76 74 70 67 62 56 52 48 43 43 43 42 43 47 50 50 51 52 51 52
15 15 15 16 17 23 30 33 35 36 40 42 43 50 50 51 52 52 52 52 51 51 51 52 54 55 54 52 53 55 58 61 59 57 56 54 51 49 48 47 43 42 42 42 43 44 45 47 50 52 55 55 53 47
15 14 15 16 19 23 30 35 37 40 41 43 44 45 45 46 48 50 50 53 55 54 55 55 58 60 60 60 60 61 61 61 61 61 59 54 53 51 47 44 42 41 41 42 43 45 49 51 50 46 44 42 44 44
18 17 16 16 19 25 36 38 42 44 46 48 49 50 52 56 58 60 62 62 59 59 62 65 67 69 70 70 71 70 68 65 59 55 50 49 48 48 46 45 46 48 49 49 48 48 45 45 46 47 47 45 45 45
23 22 22 23 24 27 38 41 49 50 53 52 55 56 57 58 59 60 61 59 60 68 72 72 72 74 77 80 79 76 73 66 58 54 54 56 57 55 53 53 53 53 53 53 53 51 51 51 49 46 45 45 46 46
28 29 30 31 32 37 37 43 49 54 62 67 68 66 62 61 66 70 68 66 72 75 77 77 78 82 82 83 81 79 73 63 61 63 65 64 61 60 61 60 60 60 60 58 54 51 49 47 46 45 46 46 48 50
32 40 39 43 46 48 48 47 50 58 60 70 75 79 81 82 82 79 77 79 84 85 87 88 87 86 82 80 75 71 71 71 70 69 65 64 64 64 64 65 64 59 52 48 46 45 45 44 43 42 41 42 43 44
51 65 67 77 80 78 74 72 72 71 83 87 89 88 84 91 97 95 88 93 93 91 89 88 85 81 78 76 76 77 75 71 66 63 64 65 66 66 63 56 48 46 45 44 41 38 34 31 29 29 30 33 36 40
75 80 86 92 97 96 97 98 98 98 97 98 98 97 98 98 97 97 97 97 96 95 93 91 86 82 79 76 75 73 70 69 69 70 70 68 63 55 48 43 41 39 36 31 27 26 26 27 30 33 37 39 43 47
83 90 92 96 93 92 94 96 97 98 98 98 98 98 98 97 97 97 97 96 95 93 88 82 78 76 76 76 75 76 76 72 69 65 58 51 45 43 41 39 34 28 26 27 29 31 32 34 37 40 44 47 51 55
86 88 89 92 94 93 95 95 96 97 97 97 96 95 94 93 92 92 90 88 87 86 85 83 82 82 82 81 79 76 70 59 49 45 44 44 42 38 32 28 27 28 30 32 35 36 38 41 44 46 50 53 57 59
81 81 83 82 83 85 86 85 88 88 88 88 87 86 85 85 85 85 85 85 85 86 84 83 82 80 72 61 52 47 46 48 49 47 42 36 31 28 28 29 31 33 34 34 35 39 43 45 47 50 54 59 63 66
67 69 71 72 76 76 75 76 74 76 77 77 78 77 77 79 78 78 75 71 67 64 61 56 52 50 48 48 49 50 50 47 41 35 32 30 30 31 32 33 33 34 34 36 40 43 45 46 49 51 56 60 64 69
50 52 55 57 57 58 56 55 53 52 53 52 50 49 49 50 52 51 52 53 53 54 53 52 52 52 53 53 51 49 45 39 34 31 31 32 34 35 34 33 33 34 37 41 45 47 48 49 52 56 60 64 69 75
45 45 46 49 50 50 48 40 40 45 49 49 49 52 55 58 60 60 61 61 61 60 57 54 53 51 50 48 46 42 37 31 29 31 34 35 35 34 34 34 35 38 41 43 46 47 49 52 57 61 64 69 74 79

GFSWCAN_prec_cthk_021.txt.gz
RH
96 97 98 96 91 82 75 72 69 66 66 67 62 55 50 49 46 46 48 51 50 45 43 37 29 28 32 35 39 39 42 42 42 43 44 42 44 40 39 37 43 41 49 51 50 49 43 30 34 37 32 31 30 32
96 97 96 91 83 77 80 76 74 77 75 71 62 56 47 44 44 43 58 64 66 51 43 36 35 37 40 41 36 38 41 40 40 45 44 44 49 48 44 43 42 42 40 43 40 37 31 32 33 33 34 35 36 39
96 93 88 82 78 77 72 74 78 80 74 66 59 51 44 40 43 45 80 72 59 58 54 48 48 45 45 44 45 42 40 41 41 39 42 45 46 44 47 46 43 40 41 40 38 33 35 35 37 38 40 43 45 48
89 83 77 75 72 71 74 81 79 80 72 69 56 44 41 40 43 57 68 76 56 53 58 62 59 57 54 50 47 41 40 42 42 41 42 45 43 43 46 45 45 41 41 42 43 41 42 42 43 45 47 49 50 52
83 80 76 71 71 73 79 82 79 76 73 72 58 46 42 45 56 77 79 70 62 53 53 56 55 54 53 50 47 45 43 41 43 44 48 48 47 50 53 51 47 43 45 50 49 43 47 48 51 55 58 63 65 64
82 78 73 75 75 79 77 80 80 76 75 74 67 54 51 63 78 79 79 73 66 57 51 60 56 56 52 50 48 47 48 49 49 49 52 53 50 51 58 56 43 46 48 50 50 54 57 61 67 67 66 67 66 65
78 78 79 83 86 86 78 80 76 75 79 69 67 63 60 64 73 74 65 65 58 53 48 54 55 54 54 54 54 55 55 55 55 55 56 55 55 55 60 62 55 54 54 59 64 65 65 67 67 68 67 67 69 75
90 85 88 91 92 88 83 78 78 78 72 73 77 72 70 68 62 60 58 53 50 46 44 50 51 49 50 51 52 51 52 52 54 56 57 58 61 62 64 61 60 59 60 64 66 68 69 71 72 73 76 80 82 86
88 87 88 93 95 90 86 83 79 76 75 73 71 69 66 62 59 61 58 56 51 46 47 47 47 54 55 57 58 58 58 60 59 61 62 61 65 66 62 60 60 59 60 61 64 68 75 79 82 86 87 89 92 93
95 92 90 94 94 94 90 86 82 80 78 75 72 70 70 70 66 63 61 59 57 57 57 61 65 66 67 68 67 64 61 62 62 62 63 64 65 63 61 64 69 72 71 75 78 82 85 86 87 89 91 91 93 93
97 95 94 94 96 95 95 90 86 84 80 76 76 80 81 78 74 73 77 77 77 78 76 76 75 73 70 68 70 69 69 65 64 63 66 68 68 65 68 74 81 84 85 86 87 88 86 86 87 87 88 88 85 83
98 98 98 94 94 92 93 95 91 88 85 82 81 81 79 78 78 81 84 82 81 80 77 77 76 74 72 70 68 69 69 71 72 71 74 74 75 81 85 87 89 88 86 85 84 84 86 84 82 81 80 78 78 76
98 97 96 97 96 96 92 87 87 87 86 84 84 83 83 86 86 81 82 78 75 74 74 73 72 69 68 70 73 74 77 80 82 87 90 88 89 89 88 87 87 84 83 80 77 75 72 71 72 72 71 69 67 66
95 97 99 99 99 98 96 92 88 81 77 73 70 72 71 76 75 75 78 78 77 76 77 77 78 81 84 86 89 90 91 92 92 89 88 89 89 89 88 88 87 86 87 86 85 83 82 80 74 71 69 66 61 56
78 83 87 87 96 99 98 98 98 95 95 94 91 93 90 88 88 86 83 79 81 85 92 94 94 94 95 96 96 96 96 94 89 87 89 92 93 93 92 88 84 85 87 89 88 83 76 72 68 62 59 54 51 48
61 61 63 68 75 82 88 95 98 94 97 98 98 98 95 95 97 97 97 97 97 98 98 98 97 97 96 96 95 95 94 92 91 95 96 93 93 92 91 90 89 86 81 78 74 74 72 65 58 54 49 43 42 41
48 47 52 54 58 61 64 73 78 78 82 90 94 98 98 98 98 98 98 98 98 98 98 98 97 97 96 96 93 92 90 91 93 91 91 90 85 83 83 82 75 73 77 75 68 61 56 50 45 43 42 42 42 41
34 33 37 40 42 48 52 54 56 60 67 70 68 71 75 78 80 80 79 78 75 74 76 79 77 81 81 80 80 77 76 76 76 77 78 79 79 77 71 66 61 57 53 51 49 47 45 45 45 44 42 41 39 38
20 22 25 27 27 27 31 36 39 48 55 56 57 60 64 66 66 66 65 64 65 65 65 64 64 62 63 64 63 62 60 59 60 63 63 62 59 57 56 57 59 59 58 55 53 51 51 49 48 47 47 47 44 38
15 10 11 14 19 20 26 32 35 37 46 48 47 48 49 50 50 51 52 51 52 51 50 50 51 51 50 49 51 51 54 55 57 59 61 62 61 62 66 67 64 61 57 56 58 59 58 56 56 55 53 46 37 32
9 9 8 7 10 15 24 31 31 36 40 42 42 43 44 46 48 49 52 52 52 54 54 53 54 55 56 55 56 59 64 67 69 67 66 68 70 72 72 69 66 67 66 67 68 67 64 62 59 52 41 32 28 25
9 9 8 9 14 21 26 32 34 34 36 38 39 43 43 43 45 48 50 51 52 52 57 61 63 64 66 68 68 71 72 73 74 76 77 78 78 77 76 76 76 77 77 74 70 67 63 58 46 35 29 25 23 21
11 10 11 14 17 24 31 31 33 32 35 40 40 45 45 45 45 46 51 55 57 60 65 68 71 74 75 75 74 75 77 80 82 82 83 81 79 81 83 84 84 82 77 72 69 63 53 42 34 28 25 22 22 24
11 12 17 22 24 31 34 36 38 40 42 44 45 48 49 50 52 55 57 60 62 63 64 68 72 75 78 81 81 85 87 88 86 87 88 89 90 91 91 87 83 80 75 69 61 50 40 32 28 25 24 25 28 29
18 30 33 39 42 45 47 53 54 53 55 59 59 61 65 69 68 67 65 68 72 77 79 82 83 84 86 88 90 91 93 95 97 98 95 94 92 90 88 86 80 73 65 56 45 35 31 28 27 27 29 30 30 32
38 46 49 55 60 62 61 63 63 64 65 68 71 73 75 76 78 80 79 85 85 88 91 92 93 94 96 98 98 98 98 98 97 96 95 94 93 89 82 75 67 56 45 36 32 29 28 28 28 29 30 31 33 35
51 55 59 62 64 65 67 69 70 71 76 79 80 82 82 85 87 88 88 91 92 97 98 98 98 98 98 98 98 97 97 97 96 96 94 89 81 73 63 52 42 37 34 31 29 29 29 29 29 31 32 34 37 37
62 66 65 66 68 70 72 75 78 81 84 87 87 89 89 91 93 94 95 96 97 96 95 97 98 98 98 98 98 96 96 94 91 83 74 61 50 44 42 40 37 33 31 31 30 30 30 31 32 34 36 38 38 38
66 64 63 65 65 67 69 73 76 80 82 85 87 89 92 91 91 90 90 90 90 90 91 91 91 91 90 89 87 79 68 56 47 45 45 46 47 46 42 37 32 30 29 30 31 31 32 34 37 39 39 39 40 41
55 51 52 51 52 53 55 57 61 64 69 71 73 74 74 75 74 72 72 71 69 67 67 66 66 65 59 52 48 46 47 48 49 50 51 50 45 39 33 29 29 29 29 29 32 36 40 43 43 41 40 41 42 45
42 41 43 43 44 46 48 49 53 56 59 63 65 65 64 62 59 57 57 57 57 58 58 57 54 54 53 54 54 54 54 54 53 50 44 39 33 30 30 30 31 33 36 40 42 45 46 44 42 41 40 41 44 48
47 50 50 49 48 46 44 47 48 50 50 49 50 49 51 54 57 56 58 60 61 59 58 58 58 59 57 57 56 56 53 47 41 37 33 31 30 32 34 39 43 45 46 47 48 48 48 45 42 40 40 42 47 51
56 51 45 44 44 46 47 45 47 52 55 55 54 56 59 60 61 60 61 63 64 62 61 60 63 64 62 57 51 44 39 36 33 32 32 35 39 44 46 47 49 49 49 51 52 51 48 44 42 42 43 45 48 51

GFSWCAN_prec_cthk_024.txt.gz
RH
95 98 97 88 97 97 95 96 92 86 83 80 74 67 65 60 61 63 56 51 44 44 44 41 36 33 32 37 38 38 40 39 39 46 47 41 44 35 33 31 36 39 46 51 46 55 51 27 31 35 32 30 30 32
98 97 98 98 97 97 93 90 84 80 76 70 65 64 61 58 60 64 55 51 43 42 49 45 39 32 29 35 39 39 37 34 38 43 43 44 48 45 39 38 36 38 36 38 36 35 31 32 31 33 35 35 37 40
99 96 94 97 94 91 87 81 77 72 67 63 62 61 59 59 60 58 52 47 46 52 52 52 46 36 33 32 40 40 41 39 41 40 41 45 52 42 49 41 38 36 37 37 36 32 32 34 36 39 41 43 45 46
96 92 90 88 85 81 79 77 78 74 70 68 65 60 58 58 61 61 48 52 77 70 61 51 46 45 44 43 46 45 40 45 43 45 47 47 47 42 44 41 40 40 41 40 39 36 39 41 44 45 49 52 54 58
91 90 89 89 90 90 92 90 83 78 74 70 62 57 55 57 59 52 52 66 81 78 73 55 50 53 50 48 49 53 51 45 46 49 51 49 45 47 49 48 49 45 43 45 45 45 45 47 53 56 57 61 65 67
86 85 81 82 85 85 88 86 83 78 70 66 65 57 51 54 53 59 76 70 80 74 70 79 69 71 64 59 54 54 53 49 50 48 52 51 50 50 59 52 51 48 48 51 52 52 55 58 62 65 67 67 66 66
77 77 83 86 87 80 78 82 84 80 70 60 53 51 50 51 57 61 77 81 76 67 56 67 66 65 61 58 57 56 53 51 53 56 59 57 55 53 57 56 54 54 55 56 58 60 63 65 66 65 67 68 73 80
85 86 86 85 88 90 81 80 81 86 79 65 56 56 58 59 67 78 83 78 70 61 55 59 61 65 63 62 61 60 61 61 62 62 60 57 57 57 63 60 61 60 61 62 60 59 62 63 66 70 76 81 85 85
88 89 91 89 87 88 87 85 79 77 83 83 80 76 80 83 84 81 75 74 69 64 63 61 62 62 61 60 58 57 56 57 55 57 59 60 64 65 63 62 63 64 63 63 66 69 74 79 81 84 87 87 86 86
92 93 92 89 90 89 84 81 84 78 74 71 67 67 73 78 77 74 72 67 62 59 54 55 54 53 52 56 58 59 62 65 64 64 66 67 65 64 64 63 62 63 66 70 76 82 87 88 88 86 86 85 83 81
91 92 94 94 93 92 85 87 83 80 75 77 73 78 78 73 70 68 69 67 65 63 60 59 60 60 64 68 72 72 73 71 71 67 69 69 67 64 66 67 69 74 78 82 86 87 85 81 79 79 77 77 79 74
96 95 96 96 95 94 89 86 82 81 79 78 80 79 77 74 72 76 77 76 72 74 73 74 73 76 77 78 78 76 75 74 74 70 71 71 67 73 82 87 89 87 86 85 83 81 80 79 80 78 75 69 64 60
97 95 93 94 93 94 94 94 90 86 84 82 81 82 83 86 89 88 84 82 82 81 82 80 79 79 78 77 77 76 75 76 71 75 77 73 79 89 91 91 88 87 83 79 76 72 70 70 69 66 65 63 57 54
95 96 94 93 94 93 92 90 93 93 92 92 92 94 92 91 86 83 82 82 81 78 77 76 76 76 78 78 79 80 83 85 87 85 83 88 92 94 93 92 90 86 83 81 79 78 72 65 60 58 55 52 49 47
91 92 95 95 94 95 93 92 90 85 86 89 87 90 89 86 81 75 73 72 73 77 81 83 80 80 84 89 90 93 94 93 89 87 90 92 94 96 95 92 89 86 85 81 73 64 60 61 58 52 45 41 38 38
76 86 87 90 96 97 97 98 96 95 95 94 93 93 91 89 89 89 89 92 92 90 89 91 94 95 97 98 98 98 97 93 92 92 94 96 96 95 93 87 84 80 70 65 63 61 56 50 45 41 41 41 38 37
60 64 66 69 76 77 85 89 84 89 95 97 98 98 97 98 98 98 98 98 98 98 98 98 98 97 95 95 94 94 94 93 93 92 91 90 89 86 81 78 73 67 64 58 52 48 46 44 44 43 42 41 42 44
46 48 52 56 59 64 68 73 72 78 90 90 89 94 96 95 95 94 94 93 92 93 91 92 88 91 92 91 88 88 88 86 84 81 78 76 76 75 74 66 57 56 55 54 52 50 47 45 45 46 46 46 48 48
30 34 37 40 43 41 44 49 55 66 76 77 76 77 77 76 76 77 77 74 72 70 71 71 74 70 72 73 72 68 66 65 64 64 64 66 66 64 64 62 61 61 61 60 55 51 51 53 55 55 55 54 52 45
18 19 20 24 25 29 37 42 44 51 57 61 62 63 62 61 60 60 60 58 55 55 54 54 57 57 55 55 56 55 53 54 53 57 62 64 64 66 67 68 68 68 67 61 60 62 66 67 65 63 59 52 43 35
13 13 11 10 14 19 33 41 42 47 48 49 48 48 48 47 48 49 49 49 49 52 54 54 53 53 52 50 51 55 58 60 63 65 68 70 73 75 75 78 78 74 71 70 73 77 76 70 66 63 54 45 36 30
9 9 8 9 15 19 26 31 33 33 38 40 41 40 41 41 42 46 48 50 51 54 55 56 58 60 62 63 64 67 71 74 75 77 77 78 80 83 85 84 81 79 80 83 83 78 73 70 65 55 45 36 31 29
8 8 9 12 15 21 29 31 33 35 36 38 39 41 43 43 45 43 49 53 55 56 57 61 66 68 70 74 77 77 78 78 79 80 83 86 87 87 87 88 91 92 90 85 79 76 72 64 54 42 35 31 29 27
10 13 17 22 25 30 32 35 38 38 40 42 44 47 49 50 51 53 55 59 63 64 64 64 65 68 71 74 76 79 84 86 88 89 91 92 95 98 98 96 94 90 86 83 79 72 60 47 38 34 31 28 26 27
20 32 31 37 39 40 44 47 49 48 52 54 56 57 61 61 61 63 65 70 72 73 75 77 78 80 84 87 88 89 92 96 98 98 98 98 98 97 96 93 89 84 81 75 62 48 41 37 32 29 27 28 29 30
37 44 44 48 51 53 53 57 58 59 60 63 66 66 68 69 69 73 74 77 80 83 85 86 90 96 98 98 98 97 98 98 98 98 98 98 97 94 89 84 80 72 58 48 42 37 32 29 29 29 30 30 32 36
46 51 55 56 58 58 62 66 68 68 71 74 76 77 76 76 78 79 81 83 83 85 88 91 92 93 96 97 97 98 98 98 98 98 96 91 86 80 69 58 52 48 44 37 32 31 30 30 29 29 31 35 39 39
56 59 58 60 61 62 64 67 70 74 76 79 82 84 85 86 86 86 84 83 84 86 87 88 91 92 93 93 92 91 89 86 80 72 63 53 47 48 49 49 46 39 35 33 32 31 29 28 30 33 38 41 42 40
54 51 51 50 51 52 54 55 57 60 62 64 66 69 73 76 76 76 76 76 75 75 74 73 71 70 69 68 65 58 50 47 46 47 49 52 53 52 48 42 37 33 30 29 29 29 32 35 39 42 43 44 44 41
44 40 44 44 44 46 46 47 48 48 50 54 57 61 64 68 70 70 69 67 64 62 62 61 60 59 54 50 48 48 48 51 54 56 55 52 47 41 36 32 30 30 32 34 37 41 43 45 45 45 47 47 45 43
42 42 45 45 46 47 49 49 48 48 49 51 55 58 58 57 56 56 56 57 58 59 61 60 57 55 54 52 53 56 58 58 55 50 44 38 35 33 33 34 36 39 42 44 46 46 46 47 49 51 51 49 46 45
46 50 50 49 48 44 41 42 44 45 46 48 51 54 58 60 60 58 60 62 63 61 60 60 60 60 60 62 62 60 54 48 44 40 37 37 39 41 43 46 46 47 48 48 46 47 50 52 54 55 54 50 47 46
46 44 41 42 43 44 44 42 43 47 51 54 58 61 62 63 65 64 63 64 64 63 61 60 62 64 64 62 55 48 43 40 38 38 38 39 40 43 45 47 47 47 46 46 49 51 53 54 55 54 52 49 47 46

GFSWCAN_prec_cthk_027.txt.gz
RH
65 64 64 71 75 81 82 82 82 94 96 96 85 91 87 84 85 87 86 64 57 56 52 43 41 38 42 49 54 54 52 48 44 42 47 43 46 38 36 31 36 39 45 51 48 56 49 28 28 30 37 31 31 32
74 77 83 93 97 93 98 96 96 96 94 98 97 92 91 83 85 90 82 58 57 56 50 45 39 36 42 44 48 50 45 42 39 40 43 48 48 44 38 39 33 40 36 41 36 39 38 31 31 31 32 32 34 38
92 96 97 96 96 95 98 96 93 97 97 92 91 88 84 81 85 89 83 59 52 53 53 50 46 38 34 37 38 44 45 40 37 38 41 45 50 41 49 40 42 36 35 35 35 31 33 34 33 36 38 41 42 45
99 97 95 91 95 96 97 98 94 91 91 87 83 80 80 78 84 89 79 63 56 49 54 58 49 43 36 33 34 40 40 39 39 43 46 46 51 42 45 42 40 41 39 38 38 34 35 39 47 45 45 49 54 57
98 98 98 99 97 95 90 87 88 86 82 79 74 73 71 71 86 89 72 60 53 53 57 58 51 47 43 38 34 37 44 44 47 50 51 52 47 47 47 45 44 40 42 45 45 45 44 46 50 50 54 57 59 62
98 98 98 96 95 91 87 85 81 78 74 73 71 69 67 73 84 80 70 56 56 60 68 64 57 53 51 48 44 46 49 58 52 54 55 50 49 51 57 50 49 47 44 45 45 48 51 54 57 57 59 61 61 60
92 93 91 91 91 88 80 78 76 73 71 71 71 71 71 79 77 75 66 63 80 80 79 69 61 58 57 57 58 59 56 56 63 60 56 57 54 54 59 57 54 48 47 49 51 55 63 60 62 62 62 61 66 72
92 93 92 90 94 93 88 83 79 75 73 70 71 71 73 74 80 75 62 72 85 80 81 88 77 71 66 67 67 69 66 63 63 61 61 62 61 63 65 58 54 53 55 58 60 61 62 63 64 66 70 74 78 80
92 92 88 88 92 94 92 86 77 74 74 72 71 72 76 84 84 73 64 71 76 72 71 69 83 81 81 75 73 71 65 67 65 68 68 66 66 63 58 57 59 61 62 63 64 64 66 68 71 76 80 81 81 79
93 92 92 90 91 94 95 95 88 83 80 77 77 76 78 79 83 78 84 89 84 76 69 64 66 66 67 72 72 68 68 71 64 62 60 62 62 62 65 66 65 65 67 68 70 71 74 78 82 84 83 80 77 77
93 92 93 92 90 87 85 90 86 85 81 79 79 79 77 79 81 85 87 88 82 78 71 72 70 67 65 66 67 65 64 64 67 65 69 68 65 68 70 69 68 68 72 75 79 83 86 85 83 82 81 79 73 68
94 96 94 94 93 89 84 81 81 78 77 78 80 92 91 86 81 80 83 82 77 74 70 67 64 61 60 62 64 68 71 71 74 70 75 73 68 73 71 69 72 77 80 83 85 84 82 81 80 76 71 66 56 49
97 97 96 95 93 93 92 87 81 80 76 76 78 77 80 83 90 86 84 78 70 67 67 66 66 67 69 71 77 80 84 84 76 80 74 72 69 69 73 79 83 85 86 87 84 80 76 73 65 60 54 46 43 41
94 93 92 93 93 91 91 90 88 86 87 87 91 95 94 93 87 82 79 79 81 81 81 82 83 84 85 84 86 87 85 84 84 81 73 72 78 84 90 91 92 88 82 83 82 79 72 63 55 49 46 43 39 34
92 93 92 91 90 91 93 93 93 90 91 96 94 97 92 89 91 90 90 88 86 87 85 81 80 80 82 85 84 85 87 87 82 81 83 86 91 94 95 95 92 88 87 87 79 66 59 53 52 48 38 36 35 34
89 89 92 92 91 93 92 91 91 93 94 96 95 95 95 94 93 92 89 87 84 81 78 75 77 81 86 88 89 90 91 90 92 93 94 96 97 97 97 93 90 91 90 81 68 60 55 47 42 41 40 38 37 38
77 76 85 87 89 94 94 95 95 95 97 95 97 97 96 95 93 93 91 91 90 90 93 95 95 94 94 95 96 96 98 97 96 96 96 96 96 94 91 91 87 79 69 65 59 50 47 45 44 41 43 44 45 46
59 61 67 75 79 79 79 80 88 95 97 97 97 97 96 96 97 98 97 98 98 98 98 98 97 98 98 97 97 96 97 96 93 90 89 87 86 81 75 72 69 63 58 56 55 54 52 48 51 53 55 54 55 56
39 44 49 52 52 54 59 67 78 89 93 94 93 92 91 92 92 92 92 91 93 94 95 95 96 95 95 96 96 92 89 84 78 70 66 64 63 64 64 65 63 64 65 64 64 62 59 57 60 63 62 59 59 62
21 25 29 33 30 36 46 52 59 68 77 81 83 83 81 81 79 77 77 76 77 75 74 73 76 77 74 70 66 62 58 56 57 57 59 61 63 65 68 70 72 72 71 70 68 66 69 73 75 69 64 61 66 64
14 15 16 15 18 25 39 44 48 54 55 58 60 61 59 59 60 60 61 58 58 62 62 61 61 60 58 56 57 59 58 59 60 62 62 66 71 73 74 77 79 79 81 82 81 80 79 79 76 72 71 72 64 61
9 9 11 12 17 22 29 33 38 40 44 47 45 47 48 49 48 49 53 53 53 54 55 55 56 55 55 56 57 60 64 67 71 74 76 76 77 79 81 82 84 86 87 86 85 85 85 83 79 75 70 65 57 49
7 7 9 11 14 20 30 30 33 38 39 39 41 41 42 44 43 43 46 49 52 54 55 56 56 58 61 64 67 71 74 77 78 79 80 81 83 85 88 89 91 93 96 94 90 87 83 80 76 70 62 49 43 39
12 14 17 23 26 30 30 33 34 36 39 42 44 47 48 49 50 51 53 56 58 59 59 60 61 63 66 69 72 75 77 78 81 84 89 90 91 93 96 97 97 96 92 90 87 82 78 74 63 51 45 40 39 35
20 31 32 34 37 38 42 44 45 47 49 50 52 53 55 56 57 57 60 62 64 64 64 66 67 71 75 78 79 85 88 90 93 95 98 98 97 98 98 97 93 89 85 82 79 71 59 47 42 38 34 36 36 36
35 39 40 43 45 45 47 51 51 52 53 56 58 61 62 63 63 65 65 67 68 69 70 72 76 76 77 82 87 92 95 95 97 98 98 98 98 97 94 91 86 83 68 57 50 45 40 36 33 32 34 36 35 36
44 46 46 46 49 50 54 56 56 59 61 64 66 67 67 68 68 72 73 75 76 76 76 77 78 80 83 87 90 91 93 96 97 95 92 85 77 70 63 55 49 48 47 44 40 35 32 31 31 34 36 38 40 42
49 51 49 50 49 50 51 52 53 56 57 59 60 63 66 68 70 74 76 75 75 76 76 75 75 75 75 75 75 75 74 69 64 60 54 48 44 45 49 49 49 46 41 37 33 30 30 31 36 40 42 44 45 47
47 45 45 42 43 44 45 46 47 48 51 52 53 56 58 63 66 69 70 72 73 74 73 71 70 69 67 64 59 55 49 46 48 47 53 57 58 56 48 41 37 36 35 35 35 36 38 40 42 45 46 47 49 50
40 40 42 41 43 45 46 47 48 47 47 49 52 55 58 62 65 67 68 68 67 64 63 62 62 62 60 59 58 51 51 53 55 55 54 51 46 39 36 40 43 42 41 43 43 45 47 48 48 49 50 51 52 53
39 44 45 47 48 50 49 49 47 45 46 48 52 54 55 57 58 58 59 60 62 62 62 63 60 59 57 55 59 62 66 60 53 46 41 40 40 40 44 41 39 40 39 41 43 44 45 46 49 50 52 54 55 55
43 43 42 41 44 41 39 42 44 46 46 48 50 53 57 59 61 62 65 67 68 67 65 67 67 61 62 64 62 59 53 47 44 44 42 39 37 36 36 38 40 41 42 41 41 43 43 46 49 52 52 53 54 53
39 39 40 41 42 43 45 44 45 46 47 50 54 59 62 65 67 70 69 69 69 68 64 62 64 65 64 60 54 49 46 43 40 39 38 37 37 38 40 42 44 45 45 44 45 46 46 48 51 52 51 50 48 47

GFSWCAN_prec_cthk_030.txt.gz
RH
82 80 80 76 74 66 62 56 61 70 68 70 65 49 83 86 89 82 74 97 98 90 75 71 64 59 58 68 70 60 57 50 50 49 46 43 48 41 35 34 41 42 50 55 53 62 56 30 29 31 38 35 32 31
49 52 54 57 53 46 45 52 64 77 84 71 58 72 79 89 94 89 87 76 86 98 84 68 65 53 53 73 54 56 52 46 44 46 46 48 50 47 40 40 33 40 37 44 40 44 37 33 33 32 33 33 33 35
67 68 66 61 62 62 64 73 79 74 71 65 84 85 88 96 93 84 75 87 94 87 74 69 70 52 53 58 59 57 53 53 49 46 46 46 48 41 47 39 42 36 36 37 37 30 36 37 34 36 38 39 42 43
76 77 76 75 76 84 88 85 85 87 83 90 92 90 97 90 83 92 97 98 96 71 73 68 57 49 43 46 49 55 51 49 53 50 46 43 46 38 43 38 42 41 41 37 36 35 37 40 45 45 45 47 45 48
92 95 92 92 88 92 93 88 82 86 93 89 89 89 93 90 83 97 85 89 85 65 65 68 59 50 39 36 36 42 45 45 48 51 47 48 44 46 46 45 43 40 39 43 46 44 42 48 48 48 48 48 49 54
98 99 95 96 90 85 90 92 82 81 94 96 96 91 90 88 93 99 97 78 75 61 58 66 63 56 45 41 38 39 43 46 48 51 52 48 46 48 54 53 46 45 42 45 48 48 50 50 47 48 51 56 60 60
98 98 98 97 95 95 93 94 89 92 96 89 88 89 91 93 92 97 82 71 67 59 60 65 67 63 57 49 47 45 46 52 55 52 53 52 50 55 57 58 53 51 50 50 47 48 53 55 55 57 61 62 61 61
98 99 94 93 94 92 91 91 90 88 87 87 88 90 92 89 98 95 79 76 69 66 68 74 73 66 61 63 60 54 56 57 60 58 61 62 60 64 64 59 58 56 54 52 50 53 56 61 66 65 65 65 67 70
94 97 96 92 91 87 85 84 85 86 86 86 88 92 95 98 97 89 86 77 63 70 77 80 77 72 65 66 65 65 66 71 67 69 69 68 73 69 64 62 59 60 57 55 58 62 65 67 67 68 69 70 72 76
97 97 95 94 92 91 88 85 81 83 82 84 89 94 98 97 93 84 85 81 78 89 79 81 83 75 67 69 73 72 73 74 78 79 75 72 70 67 68 63 59 59 62 64 66 70 71 71 72 74 77 81 81 79
96 95 95 95 95 95 91 90 90 90 91 90 90 95 97 91 90 88 86 82 84 89 79 79 84 85 84 86 87 87 85 83 81 77 75 71 64 63 63 63 67 70 71 71 70 72 75 77 79 81 82 81 72 66
96 95 94 95 93 92 95 94 91 89 86 86 80 87 88 89 94 88 87 83 84 91 83 77 74 75 78 78 81 86 79 74 75 67 70 66 63 67 72 74 74 74 74 71 73 75 78 82 82 82 78 69 65 62
97 96 95 93 92 91 89 89 82 82 83 84 85 89 91 89 94 90 89 95 90 87 83 81 78 74 73 72 72 71 72 75 68 74 68 68 72 77 79 76 73 72 74 77 82 85 85 83 79 72 67 68 63 54
95 95 95 94 92 90 89 86 84 81 81 84 89 93 95 94 90 89 90 90 86 83 80 78 77 76 74 73 72 72 76 76 79 80 75 80 81 80 78 78 81 84 84 84 86 84 80 77 73 71 64 58 51 38
94 95 95 95 93 90 88 87 88 85 87 94 96 98 98 94 92 92 91 88 88 85 81 81 80 78 80 82 84 87 91 91 87 84 83 82 82 85 89 92 93 90 91 93 90 83 78 76 73 64 53 41 32 32
91 91 92 94 94 95 95 94 91 90 96 97 94 96 95 96 96 95 93 92 91 91 91 90 90 90 92 92 90 92 91 89 87 85 87 89 94 97 97 96 94 93 95 92 83 78 74 68 59 45 38 37 37 39
75 85 90 93 93 94 94 93 95 97 98 97 97 97 97 97 97 96 97 98 98 96 95 93 92 91 89 88 88 88 89 92 92 95 97 98 98 98 97 96 96 94 88 82 75 66 58 51 47 45 46 46 47 49
59 67 74 75 76 76 82 92 91 94 97 97 97 98 97 98 98 97 97 95 93 91 91 92 94 95 97 98 98 98 98 98 97 97 96 96 95 93 91 87 84 80 72 65 61 58 57 57 56 55 55 57 59 59
48 53 55 57 58 62 75 83 94 96 97 97 97 97 97 97 97 96 96 96 96 98 98 98 97 97 98 98 98 98 98 97 94 92 91 86 81 77 74 71 68 67 67 67 68 66 66 65 64 64 66 67 67 67
25 29 32 31 33 41 54 66 76 90 96 97 97 97 96 96 94 93 93 94 92 91 94 96 97 97 98 95 92 89 85 81 75 73 72 70 68 66 67 69 70 72 73 74 74 76 75 75 76 75 74 71 72 69
14 15 16 15 19 29 42 52 59 66 69 70 73 71 72 75 78 81 82 77 74 80 81 83 84 83 83 82 78 74 72 70 68 65 63 65 67 70 73 75 76 77 78 80 81 81 82 82 78 75 75 77 75 71
7 7 8 10 15 23 36 41 44 45 49 53 53 53 55 55 56 59 61 58 62 64 66 67 66 65 64 64 64 64 64 67 68 69 70 70 73 75 78 79 80 81 81 82 86 87 86 85 84 80 77 74 71 68
8 8 10 11 13 20 28 30 32 39 37 41 42 40 41 43 44 44 45 48 52 54 55 55 55 55 56 59 61 62 65 68 70 74 77 78 80 84 85 86 87 88 90 93 92 91 89 84 81 77 76 70 59 49
12 15 17 23 25 30 29 34 37 39 38 42 42 45 47 46 48 45 52 54 56 56 56 56 57 57 58 59 61 65 68 76 76 79 82 83 85 85 89 91 96 98 98 94 91 86 85 82 77 69 54 45 42 38
18 29 29 33 35 36 38 42 43 43 46 47 50 52 52 54 55 55 57 60 60 61 61 62 63 64 64 65 67 71 74 77 80 86 88 92 96 98 98 98 95 92 88 85 83 78 69 56 49 43 37 37 37 37
34 37 37 38 41 41 45 46 48 49 50 52 54 55 57 60 59 62 63 64 65 64 66 66 67 68 69 71 74 76 78 82 85 87 90 91 92 92 94 93 89 86 73 62 53 46 44 40 36 36 37 38 39 40
41 43 43 44 45 45 49 50 51 52 54 57 59 59 59 64 65 67 70 71 72 72 73 74 75 75 76 78 79 81 83 84 86 85 83 79 74 68 62 57 52 48 44 42 39 34 32 32 35 38 41 43 45 45
44 46 43 44 43 41 42 46 47 51 51 52 52 53 56 59 61 63 65 66 68 68 69 70 71 72 72 71 70 70 70 67 59 54 52 52 51 52 53 50 46 41 38 36 34 35 37 41 42 43 42 41 42 44
43 43 39 39 38 39 43 46 48 47 48 47 50 53 52 56 57 60 63 66 66 67 68 69 69 68 66 64 58 54 49 48 48 50 57 59 60 56 48 39 39 40 43 43 44 43 41 38 38 39 40 41 42 44
36 35 36 37 39 46 45 45 46 46 46 46 48 49 51 54 57 60 61 63 65 66 66 64 63 62 62 61 59 57 55 57 57 57 55 51 44 40 39 45 46 46 43 40 38 37 37 37 37 39 41 43 46 47
40 40 39 38 40 42 42 42 41 41 42 44 46 48 49 53 54 56 58 59 61 63 64 67 69 68 65 60 62 64 66 62 53 47 44 43 44 45 48 45 42 40 39 39 39 40 40 40 41 42 44 46 48 49
36 38 37 40 47 40 38 43 45 51 52 50 48 50 53 55 57 60 64 67 69 70 71 71 70 69 66 65 63 59 52 49 49 48 47 44 41 38 37 37 38 41 41 42 43 44 44 45 46 47 49 50 52 53
39 39 39 38 45 48 47 45 51 53 52 55 56 60 62 64 65 67 68 69 70 69 67 65 65 66 65 59 54 53 52 51 44 40 38 36 35 36 37 39 41 43 45 46 49 50 50 51 52 53 54 55 56 56

GFSWCAN_prec_cthk_033.txt.gz
RH
81 73 70 68 76 86 93 90 94 96 98 97 98 91 69 55 56 68 82 77 76 84 83 78 66 53 70 65 65 64 79 79 64 58 64 49 47 38 46 46 44 45 56 60 64 64 54 32 29 30 35 32 32 32
68 67 73 84 91 91 94 87 82 83 87 88 83 78 63 47 52 64 78 71 72 89 91 87 66 54 54 60 60 66 68 73 53 48 48 45 49 46 42 49 40 42 37 41 41 43 32 28 29 32 32 33 33 35
77 77 78 78 87 87 83 72 67 74 75 74 76 64 49 39 60 66 80 85 81 83 90 87 74 63 77 74 62 60 63 70 51 38 45 48 50 44 46 44 37 37 36 40 39 37 36 34 34 34 34 34 37 38
59 62 66 70 76 75 66 58 56 63 68 68 66 59 47 44 65 90 84 74 85 97 95 89 82 72 63 61 64 59 60 72 55 45 49 48 49 42 43 37 39 39 38 40 40 39 40 42 42 41 43 43 41 46
70 65 58 53 51 47 45 50 56 59 62 65 58 56 47 70 81 81 82 90 98 99 97 97 81 79 75 71 68 79 63 60 53 52 53 52 48 46 43 41 41 39 41 41 45 38 37 44 45 45 46 50 50 49
80 80 79 65 52 51 53 58 68 74 74 67 56 54 78 90 93 89 87 90 94 98 98 96 89 79 78 80 71 76 82 65 56 54 58 54 51 46 50 53 45 45 43 41 44 42 44 48 50 50 49 51 52 55
94 89 85 80 83 85 81 80 81 76 68 59 74 79 90 89 83 94 94 98 99 99 93 86 83 82 77 71 67 62 60 56 52 53 54 51 50 54 55 56 49 51 51 50 51 51 53 50 53 53 53 57 59 59
98 97 93 87 85 91 90 85 80 81 85 84 84 89 91 88 75 99 97 97 86 83 69 80 84 81 68 63 56 52 51 52 55 54 53 54 56 58 60 56 56 56 56 55 54 54 54 55 57 61 63 63 63 64
98 99 94 91 83 79 84 88 85 79 80 86 93 96 96 95 97 96 97 87 83 75 73 77 75 79 76 70 65 63 58 62 58 60 61 60 64 64 61 61 63 67 64 60 60 61 62 64 66 68 68 69 69 74
97 96 96 93 93 89 86 81 84 91 89 90 92 97 98 98 94 88 87 81 75 70 67 73 75 74 71 74 74 71 66 67 66 62 62 67 67 69 71 72 76 68 64 62 62 66 70 72 71 72 74 74 76 76
95 97 97 94 96 95 94 94 91 90 92 89 93 86 85 85 83 86 85 88 86 77 70 79 82 86 77 78 76 74 76 73 73 70 73 75 75 77 81 79 77 73 70 70 71 73 75 75 76 77 78 77 76 69
98 97 95 96 94 92 91 92 92 91 87 89 86 90 88 94 91 82 80 75 72 71 73 77 85 90 91 82 81 84 83 83 84 82 85 82 81 80 79 78 76 76 75 77 77 77 76 77 78 78 78 75 73 73
98 98 97 96 98 97 95 95 94 95 94 91 90 91 97 93 91 84 83 79 78 79 77 83 90 91 95 90 91 92 94 95 86 84 80 80 77 75 77 77 77 78 79 77 79 80 80 83 86 79 78 79 76 72
95 95 97 97 97 98 95 93 90 88 87 87 93 95 96 95 88 85 84 85 84 84 83 84 86 86 85 85 82 78 81 81 83 81 76 77 77 80 79 80 83 82 81 84 84 87 87 81 82 82 81 78 74 67
96 94 93 93 95 94 93 92 92 86 84 86 86 92 91 90 90 87 89 91 92 93 93 92 91 89 88 86 85 83 85 81 80 80 78 79 83 87 86 84 85 86 90 92 87 87 88 85 81 79 77 70 60 47
89 88 92 95 92 89 89 87 84 85 90 91 90 91 89 89 91 92 94 94 94 95 90 87 87 89 90 90 88 88 86 86 87 89 91 92 92 88 89 93 94 95 96 97 94 90 87 83 78 72 64 52 43 42
83 86 90 93 92 91 90 91 92 94 97 96 97 96 98 96 97 97 96 97 96 95 94 94 95 97 96 98 98 98 97 97 97 94 91 92 95 97 98 98 97 97 97 95 89 87 82 77 67 56 51 48 49 53
72 74 75 80 90 92 93 96 96 96 97 98 97 97 97 97 98 98 98 98 98 98 98 98 98 98 97 98 98 96 94 93 95 98 98 98 98 97 97 97 95 93 91 87 79 76 70 63 61 61 61 60 61 62
52 59 59 58 62 74 82 92 91 96 97 97 97 97 97 97 98 98 98 98 98 98 97 97 96 97 97 97 98 98 98 98 98 97 96 94 93 91 90 89 86 82 80 78 73 69 69 70 71 70 69 68 67 66
24 25 29 35 41 57 80 92 93 95 97 97 97 97 97 97 97 94 92 93 94 93 96 96 97 97 97 97 98 98 98 96 92 90 88 87 87 85 82 79 79 79 76 75 75 76 76 77 78 77 72 74 72 68
15 16 17 19 25 38 55 62 73 82 87 88 85 82 86 86 86 86 84 82 84 90 92 95 96 97 97 97 96 97 94 89 87 86 84 81 80 79 79 76 76 77 78 80 82 83 84 85 82 77 75 76 72 72
9 9 10 13 19 29 39 47 51 52 57 58 56 55 59 62 68 67 66 67 73 77 79 81 83 84 84 83 83 81 80 77 78 78 76 74 76 77 77 78 79 82 83 85 87 87 88 87 82 81 78 78 77 74
7 7 9 11 13 18 26 29 31 35 39 41 40 42 45 46 50 46 48 53 56 59 61 61 59 58 58 60 61 63 64 66 68 71 73 76 77 78 81 84 87 87 88 89 88 90 89 88 86 84 82 78 70 54
9 13 17 21 24 28 29 33 36 34 38 38 40 43 44 47 48 44 51 54 57 57 57 57 57 57 58 58 59 61 63 66 69 71 77 78 82 87 87 88 90 90 92 95 92 90 86 85 82 78 65 50 42 38
16 28 27 32 33 33 37 40 42 42 45 46 47 49 49 51 52 55 57 60 60 60 62 62 61 61 62 64 65 66 67 69 71 73 76 78 81 83 86 89 91 91 87 83 82 80 78 70 56 45 38 33 33 35
33 37 36 36 38 41 43 45 46 48 48 52 52 52 55 59 61 63 64 66 67 66 67 67 68 68 69 71 72 72 75 77 78 80 82 84 86 87 87 87 86 84 78 71 60 49 41 35 32 31 32 35 39 41
40 42 42 44 46 44 45 46 46 46 48 53 52 51 57 61 63 65 66 68 69 69 69 69 69 70 71 72 74 74 72 71 69 68 67 65 62 60 58 54 51 48 44 41 38 35 34 34 36 38 40 42 43 42
42 42 40 38 37 36 42 43 45 49 49 49 51 50 52 55 58 59 60 60 61 63 66 67 67 67 68 70 71 70 67 63 60 56 54 54 57 59 57 52 47 44 42 41 40 40 41 42 43 42 41 39 37 37
37 37 35 37 36 36 42 48 49 46 47 44 48 51 53 55 56 57 59 60 61 61 62 64 67 67 66 64 55 51 50 52 54 56 56 57 56 52 47 44 44 45 45 44 44 44 45 44 42 39 37 36 37 39
36 36 36 35 38 42 42 41 43 43 42 41 43 46 49 53 54 55 57 59 60 60 60 61 62 63 64 65 65 64 66 65 61 58 55 51 48 47 46 47 46 45 44 44 43 42 42 41 39 39 39 40 42 44
35 33 32 33 39 40 40 40 40 43 45 45 45 46 50 53 54 56 58 59 60 62 65 69 69 66 64 65 66 66 63 58 53 52 51 50 49 46 44 42 40 40 41 41 41 41 42 43 44 45 45 47 49 50
32 32 35 40 43 39 40 42 44 52 52 52 52 51 55 57 60 61 65 68 70 70 71 71 68 67 66 62 59 55 54 54 52 49 44 39 37 36 36 36 38 39 41 44 46 48 50 51 52 53 53 54 56 57
37 37 37 37 42 47 45 41 54 58 62 64 65 66 66 67 68 70 71 71 71 69 68 68 68 68 68 62 56 50 43 39 37 35 33 34 34 37 40 44 48 52 56 59 63 65 67 69 70 70 70 70 71 71

GFSWCAN_prec_cthk_036.txt.gz
RH
97 94 86 84 81 74 78 70 65 66 67 71 72 66 66 63 64 63 62 74 76 76 68 76 54 52 45 40 47 56 68 66 73 73 73 65 59 54 53 42 36 41 57 62 65 64 49 34 34 35 36 36 33 31
88 84 87 82 80 77 67 71 74 79 77 72 72 68 69 67 70 62 73 74 75 71 66 78 72 51 44 44 45 55 55 61 65 73 63 66 59 57 46 50 41 44 35 42 46 46 37 31 29 29 28 29 32 33
86 85 84 83 79 79 81 86 86 85 90 98 92 85 79 79 75 56 73 66 75 90 90 89 72 63 48 44 44 56 60 66 66 61 80 70 56 55 47 40 39 37 35 38 38 40 37 34 33 33 33 32 34 37
75 78 80 84 83 89 90 86 91 97 98 90 95 99 91 80 72 53 82 74 83 93 98 93 85 70 58 44 50 62 69 66 62 74 78 70 59 47 42 34 35 35 37 39 46 45 44 42 39 37 37 39 41 42
76 80 83 87 91 90 83 79 82 88 94 97 93 85 78 73 60 49 71 76 73 90 79 94 90 82 70 65 58 71 73 69 63 64 75 68 59 53 46 41 37 33 34 39 43 40 41 45 45 45 45 47 49 49
62 71 77 82 82 79 70 65 71 76 79 82 85 81 72 64 52 50 80 95 84 65 79 80 84 87 83 76 68 84 78 74 66 62 78 76 60 52 51 50 39 38 36 34 39 40 40 45 47 49 52 54 55 54
72 60 58 67 72 67 60 56 62 66 73 79 76 70 65 52 43 46 66 69 76 78 84 92 82 86 98 77 87 94 87 77 74 77 77 81 73 60 55 52 44 44 43 43 44 45 52 52 54 57 58 59 57 57
82 80 69 53 47 44 45 52 59 60 65 68 66 61 56 52 71 91 91 91 92 89 98 97 93 98 92 91 94 87 86 79 90 91 82 78 75 63 60 53 51 50 51 55 55 55 58 60 62 64 63 59 60 63
93 88 83 73 61 57 56 49 47 53 62 63 58 55 59 64 75 84 95 99 98 98 98 97 98 99 87 84 84 85 92 92 86 86 82 70 67 64 57 55 56 58 57 61 63 68 68 66 67 67 66 67 69 72
86 89 83 75 73 70 62 62 61 64 69 65 68 86 88 91 84 88 98 98 98 99 98 97 95 97 94 89 86 84 83 82 79 75 71 67 66 64 62 62 63 65 69 71 77 79 74 73 72 74 75 77 78 78
86 80 78 77 72 74 82 80 82 81 90 98 98 94 96 97 98 98 98 98 91 84 79 81 78 77 81 79 76 74 73 69 66 66 70 70 67 65 67 69 72 75 80 84 82 80 78 78 80 81 83 82 79 72
90 85 82 73 75 75 75 87 93 91 98 91 92 97 97 99 96 95 92 85 77 77 71 72 72 71 72 69 75 77 75 72 75 73 76 74 69 71 74 79 85 91 89 83 82 84 86 86 85 82 81 79 76 73
95 94 88 87 80 78 80 81 98 96 97 97 97 98 96 94 95 93 91 84 80 77 80 76 81 85 84 84 81 79 83 84 79 85 83 81 84 86 87 91 89 84 84 85 85 86 86 84 84 84 78 76 81 79
97 94 93 94 91 90 88 99 98 94 89 89 94 96 95 95 93 92 89 87 84 84 81 82 85 90 90 95 94 91 94 92 93 88 85 86 88 88 87 86 85 87 88 89 89 88 87 87 86 82 87 85 81 76
97 97 96 95 93 90 87 85 82 80 78 89 93 95 96 96 95 92 89 89 88 88 88 82 85 90 93 94 91 89 92 90 87 85 85 86 86 85 85 86 90 92 91 89 89 92 90 87 92 90 86 81 77 73
96 94 93 95 96 96 94 87 83 86 91 95 97 98 97 96 92 90 92 90 90 88 85 82 90 93 95 94 91 92 87 90 91 90 90 89 89 92 94 95 95 95 95 93 91 92 96 91 87 84 82 79 76 71
90 94 92 95 89 89 90 89 89 91 95 97 96 96 93 93 93 93 93 91 93 96 95 93 94 98 98 97 97 97 96 94 94 94 95 98 98 98 98 96 96 98 98 97 97 95 91 89 87 83 79 72 65 62
79 83 91 92 90 89 89 88 87 88 93 96 96 96 96 96 98 96 96 98 99 99 98 98 98 98 97 96 96 97 97 98 98 98 98 98 98 97 97 98 97 97 97 96 93 93 93 91 85 78 72 70 66 63
63 62 75 87 83 86 90 95 92 93 94 95 95 95 95 96 97 97 98 98 98 98 96 97 97 97 97 97 97 97 97 98 98 98 97 96 95 97 98 97 97 97 96 95 92 88 81 79 79 77 73 69 67 66
36 38 41 52 70 78 86 93 94 96 97 97 97 97 96 96 95 93 93 92 91 91 95 96 97 97 97 97 97 97 98 98 97 96 96 96 95 95 94 92 92 92 90 87 84 85 84 83 83 82 77 74 71 73
18 21 29 36 49 68 81 89 90 93 95 94 92 91 91 86 85 85 86 84 88 95 96 97 97 97 97 97 97 97 97 98 98 97 96 94 93 91 89 88 86 85 86 88 87 85 84 85 85 86 86 80 77 77
11 12 13 16 25 37 49 56 59 62 68 68 66 63 64 68 65 63 65 69 78 84 87 90 92 94 94 95 95 96 95 94 93 91 88 84 82 83 86 87 86 84 83 85 87 87 87 88 89 91 87 85 84 81
6 6 8 10 11 18 30 32 32 36 42 41 39 43 47 51 56 50 60 66 68 71 73 74 72 71 71 70 69 70 71 72 74 77 78 84 83 81 81 83 86 86 87 88 89 90 91 94 92 87 84 81 79 75
8 12 17 20 23 30 29 34 34 35 35 37 40 42 46 51 44 44 52 55 58 58 59 62 63 62 62 63 63 63 63 65 67 69 72 74 77 79 80 83 85 87 88 89 89 89 86 84 82 81 79 75 68 54
14 25 23 30 30 30 35 39 40 40 42 44 45 49 52 51 51 55 59 60 61 62 63 62 61 61 62 63 64 65 66 68 70 73 76 78 80 82 83 84 86 87 85 83 82 80 78 76 72 67 53 41 38 38
34 38 35 35 38 39 41 44 44 46 48 47 50 50 54 55 57 62 63 64 65 66 67 67 66 65 66 67 68 69 70 70 72 73 75 77 78 78 76 74 73 73 69 65 61 56 48 42 40 40 40 41 42 43
42 45 44 42 42 39 41 40 40 41 45 47 47 49 53 56 59 62 63 62 62 62 61 61 63 64 65 65 65 65 63 63 64 65 65 62 60 57 56 53 50 49 48 47 46 45 44 43 42 42 42 43 44 45
42 40 38 35 34 33 34 41 44 46 46 45 49 48 49 56 57 59 59 60 60 60 60 61 62 63 62 62 62 64 62 57 55 56 56 58 58 58 56 53 50 49 48 46 45 45 45 45 46 48 49 48 47 46
39 40 39 39 35 35 39 44 43 42 40 40 43 48 50 52 53 55 56 57 59 62 62 62 63 63 61 59 54 53 54 57 60 60 58 55 53 52 51 51 51 50 49 49 49 50 50 49 48 46 45 45 44 44
39 37 33 32 35 38 38 38 38 38 38 40 41 45 49 52 53 54 56 57 58 60 61 62 62 65 68 67 63 66 65 62 57 56 55 53 52 51 48 45 43 42 42 42 42 43 44 46 47 48 48 49 50 51
34 32 34 37 40 39 39 40 42 43 45 46 46 46 50 54 56 59 60 61 63 66 68 69 68 67 65 64 62 60 58 56 54 52 50 45 40 37 36 36 37 40 42 45 49 52 54 57 60 62 64 65 66 67
30 32 36 39 43 44 44 48 50 51 53 55 57 59 63 64 67 69 70 70 71 72 73 71 69 69 68 65 61 54 48 42 37 34 33 35 38 42 46 48 51 53 54 56 57 59 61 63 65 67 69 72 74 76
39 37 37 42 48 51 48 45 56 57 60 64 66 67 70 70 71 72 72 71 71 72 70 69 66 58 49 42 37 35 36 39 41 42 42 43 42 41 41 41 43 45 47 50 53 56 59 61 63 66 69 71 73 75

GFSWCAN_prec_cthk_039.txt.gz
RH
98 98 98 98 98 98 98 94 85 80 71 60 56 55 49 48 67 87 85 70 63 73 72 60 55 52 45 38 34 33 54 63 69 76 82 76 72 58 55 50 51 57 65 55 53 53 51 37 39 35 32 37 39 41
98 97 97 95 92 88 79 73 72 66 58 54 53 50 56 62 76 88 88 76 69 61 59 68 60 50 34 38 43 34 47 56 58 70 79 81 74 67 59 60 48 51 45 39 39 44 41 38 37 35 38 39 40 36
92 90 88 83 76 74 73 71 68 67 66 61 59 62 65 68 81 91 86 73 66 59 56 63 61 62 46 36 44 41 49 60 58 62 72 78 73 66 66 54 48 50 41 34 36 34 34 32 29 29 30 31 33 34
93 89 85 84 83 80 79 80 75 69 63 62 62 64 63 70 89 96 83 81 80 85 92 76 62 80 66 48 48 46 47 62 69 75 79 79 75 68 70 53 49 47 37 36 39 35 34 33 32 33 33 33 35 38
90 92 91 91 91 90 85 81 80 83 81 76 73 68 65 75 92 90 82 82 83 83 86 81 66 77 81 55 52 51 52 56 67 79 78 73 69 72 73 65 55 51 41 35 36 31 32 34 37 36 36 38 41 44
82 91 95 94 91 87 85 87 86 93 96 95 84 73 70 83 85 79 80 85 95 89 87 88 88 75 77 66 59 55 51 58 64 68 78 79 75 75 75 74 60 53 41 33 33 35 37 40 41 41 42 45 48 51
83 88 94 91 92 80 81 87 92 93 98 96 98 92 96 96 75 72 80 78 81 76 92 98 92 87 92 85 73 67 59 59 65 75 74 81 76 70 72 77 66 61 51 45 42 42 48 49 49 50 52 55 58 61
77 83 89 88 78 73 76 81 85 84 87 97 96 92 98 98 89 67 57 62 61 88 97 97 90 90 88 92 89 82 72 74 76 85 92 87 84 73 75 79 71 65 57 54 54 51 51 55 59 63 64 65 68 70
66 75 77 73 62 60 69 74 82 83 85 90 95 95 90 75 51 52 66 62 62 82 95 90 83 88 88 88 97 96 92 89 90 96 87 87 89 85 73 73 77 75 67 63 63 64 63 64 67 72 75 76 75 74
67 56 64 64 59 54 57 64 71 76 79 83 74 70 67 60 62 94 98 90 89 83 78 84 88 86 82 95 95 98 91 97 97 98 95 87 92 96 87 81 82 72 62 63 68 71 72 76 81 90 85 85 82 80
70 56 43 40 41 49 50 48 54 58 59 59 59 63 70 71 67 81 97 98 93 82 85 85 85 94 96 98 99 98 98 98 97 97 92 89 84 82 88 85 79 75 70 70 73 77 84 89 92 92 91 88 87 87
66 53 42 39 36 32 28 33 40 58 61 80 87 82 79 68 82 95 95 98 98 93 91 95 92 93 98 97 96 93 89 83 84 81 83 78 70 69 72 71 69 69 70 73 81 89 96 97 93 91 91 92 92 82
76 60 49 47 46 64 74 66 83 83 93 96 85 86 90 94 96 98 96 94 92 91 88 91 94 94 91 92 90 87 89 89 82 86 85 77 72 71 73 76 80 80 83 90 97 97 93 92 91 92 92 90 81 75
78 72 71 84 86 88 92 94 96 97 96 96 97 98 98 98 97 96 94 87 83 82 84 87 86 84 80 81 81 78 79 77 80 79 77 77 78 82 90 95 95 95 92 92 92 92 92 91 93 93 87 78 85 85
83 79 86 97 97 96 98 98 98 98 98 99 98 98 97 97 96 94 90 88 85 81 80 84 86 89 84 83 83 87 88 88 85 83 84 88 91 91 92 91 90 91 90 91 93 95 96 94 88 83 89 90 87 83
95 88 91 94 99 99 98 97 96 94 91 92 94 98 98 95 94 91 89 87 88 88 88 86 88 90 94 93 94 98 89 90 91 91 92 92 91 90 90 90 92 94 97 97 98 97 94 92 96 96 93 88 83 78
93 95 95 93 90 90 87 85 83 81 84 88 96 98 96 94 93 93 92 91 92 95 92 92 94 93 92 94 97 97 96 96 96 97 97 98 97 97 97 97 98 98 97 98 96 96 97 97 96 92 87 83 81 80
96 96 96 94 93 92 92 92 92 91 94 95 97 99 98 98 97 97 95 96 95 98 97 97 96 95 95 96 96 96 97 99 99 99 98 98 98 98 98 98 98 98 97 97 98 97 97 95 92 89 86 86 84 80
87 91 91 89 93 94 95 91 87 94 97 96 96 96 95 96 96 96 95 96 97 97 96 96 96 96 97 97 97 97 97 97 97 96 96 97 98 98 98 98 98 98 97 98 98 97 95 94 94 90 88 87 85 85
44 57 76 81 82 85 89 93 92 94 97 97 96 94 93 94 94 95 92 91 94 95 96 96 97 97 97 98 98 97 97 97 97 97 97 98 98 98 98 98 98 98 98 98 98 98 97 95 92 91 91 91 88 84
36 44 51 62 72 77 87 94 95 97 97 95 92 88 84 82 85 85 83 83 83 93 95 97 97 97 97 97 97 97 97 98 98 98 98 98 98 98 98 98 98 97 95 94 92 91 91 90 90 91 92 92 92 87
15 22 24 26 34 52 58 67 66 66 67 64 65 64 68 68 62 63 66 68 75 83 88 94 97 97 97 97 97 97 97 97 97 98 98 98 98 96 95 94 94 93 91 91 92 94 96 95 92 90 90 92 93 92
6 7 9 12 16 27 37 35 35 40 44 41 39 43 46 47 44 43 51 58 65 71 76 81 84 88 88 90 91 91 90 88 86 84 84 83 82 86 88 89 93 95 96 93 92 90 90 90 90 91 93 91 87 85
7 10 15 18 21 28 26 31 32 34 33 37 40 43 46 46 39 42 50 53 56 57 58 58 59 59 60 60 60 62 63 66 67 68 70 72 72 74 76 78 80 82 84 85 87 87 87 86 85 84 81 78 74 71
13 24 21 28 27 27 34 37 37 37 41 42 44 46 49 43 47 52 56 58 60 60 62 63 63 63 63 63 64 65 66 67 68 69 71 72 74 77 78 81 81 82 80 79 77 75 73 71 68 64 60 57 54 49
31 37 35 34 35 36 39 40 44 46 45 45 47 50 49 46 49 56 57 61 63 64 65 64 63 62 61 60 59 59 59 60 60 60 62 62 61 60 60 59 58 57 55 53 53 51 50 48 48 46 45 44 44 45
41 41 39 39 38 35 38 40 39 39 41 43 46 47 47 51 55 57 59 60 59 58 58 58 58 58 58 58 58 59 58 57 56 55 55 54 53 50 48 47 48 49 50 49 49 49 47 45 45 46 48 49 51 51
39 37 37 35 35 35 36 38 40 43 43 42 44 45 45 50 54 58 58 58 58 58 59 59 59 57 53 54 55 55 52 50 53 54 55 55 53 52 51 50 49 48 47 46 45 44 44 45 45 46 46 47 47 48
40 40 37 37 34 37 39 40 40 40 37 38 38 42 45 48 50 52 53 55 56 57 58 59 60 59 58 57 53 53 55 56 56 54 50 47 46 46 45 43 41 38 36 36 37 40 43 46 48 50 52 54 56 58
40 37 34 37 39 40 41 38 36 36 35 36 37 42 46 50 53 54 55 57 58 59 60 61 63 65 66 63 60 58 56 54 53 50 48 44 39 34 32 32 34 36 38 40 41 43 45 47 49 52 54 57 59 62
38 36 36 39 41 41 40 39 38 40 42 43 45 47 50 55 58 61 64 66 67 68 70 71 69 67 65 63 60 58 53 46 38 32 30 32 34 36 37 36 34 33 33 34 36 38 41 45 48 51 56 60 63 65
35 37 38 40 43 44 44 48 50 50 53 54 56 57 59 62 66 68 70 72 72 71 68 67 66 64 58 50 40 33 31 33 35 37 37 36 35 34 32 32 34 36 38 39 41 43 46 50 53 56 60 66 69 71
38 36 37 41 45 48 50 50 55 56 57 58 62 63 67 66 67 67 66 66 65 62 57 51 43 36 33 36 38 39 38 38 37 37 35 33 32 33 35 36 38 39 40 41 42 45 49 52 54 56 59 63 67 70